Time,TemperatureF,DewpointF,PressureIn,WindDirection,WindDirectionDegrees,WindSpeedMPH,WindSpeedGustMPH,Humidity,HourlyPrecipIn,Conditions,Clouds,dailyrainin,SoftwareType,DateUTC
2013-04-22 00:00:00,40.5,40.5,30.65,SE,135,6.0,8.0,0,0.00,,,0.00,meteohub,2013-04-22 04:00:00,
2013-04-22 00:01:00,40.5,40.5,30.65,SE,135,6.0,8.0,0,0.00,,,0.00,meteohub,2013-04-22 04:01:00,
2013-04-22 00:02:00,40.5,40.5,30.65,SE,135,6.0,8.0,0,0.00,,,0.00,meteohub,2013-04-22 04:02:00,
2013-04-22 00:03:00,40.5,40.5,30.65,SE,135,6.0,8.0,0,0.00,,,0.00,meteohub,2013-04-22 04:03:00,
2013-04-22 00:07:00,40.5,40.5,30.65,SE,135,6.0,8.0,0,0.00,,,0.00,meteohub,2013-04-22 04:07:00,
2013-04-22 00:08:00,40.5,40.5,30.65,NE,45,5.0,8.0,0,0.00,,,0.00,meteohub,2013-04-22 04:08:00,
2013-04-22 00:09:00,40.5,40.5,30.65,East,90,6.0,8.0,0,0.00,,,0.00,meteohub,2013-04-22 04:09:00,
2013-04-22 00:12:00,40.3,40.3,30.65,East,90,6.0,7.0,0,0.00,,,0.00,meteohub,2013-04-22 04:12:00,
2013-04-22 00:13:00,40.3,40.3,30.65,East,90,5.0,7.0,0,0.00,,,0.00,meteohub,2013-04-22 04:13:00,
2013-04-22 00:15:00,40.3,40.3,30.65,SE,135,6.0,7.0,0,0.00,,,0.00,meteohub,2013-04-22 04:15:00,
2013-04-22 00:18:00,40.3,40.3,30.65,East,90,6.0,6.0,0,0.00,,,0.00,meteohub,2013-04-22 04:18:00,
2013-04-22 00:19:00,40.3,40.3,30.64,SE,135,5.0,6.0,0,0.00,,,0.00,meteohub,2013-04-22 04:19:00,
2013-04-22 00:22:00,40.3,40.3,30.65,SE,135,8.0,8.0,0,0.00,,,0.00,meteohub,2013-04-22 04:22:00,
2013-04-22 00:24:00,40.3,40.3,30.65,East,90,6.0,8.0,0,0.00,,,0.00,meteohub,2013-04-22 04:24:00,
2013-04-22 00:25:00,40.3,40.3,30.65,East,90,6.0,8.0,0,0.00,,,0.00,meteohub,2013-04-22 04:25:00,
2013-04-22 00:27:00,40.3,40.3,30.65,SE,135,6.0,8.0,0,0.00,,,0.00,meteohub,2013-04-22 04:27:00,
2013-04-22 00:28:00,40.3,40.3,30.65,South,180,5.0,8.0,0,0.00,,,0.00,meteohub,2013-04-22 04:28:00,
2013-04-22 00:30:00,40.3,40.3,30.65,East,90,5.0,8.0,0,0.00,,,0.00,meteohub,2013-04-22 04:30:00,
2013-04-22 00:32:00,40.1,40.1,30.65,SE,135,7.0,8.0,0,0.00,,,0.00,meteohub,2013-04-22 04:32:00,
2013-04-22 00:33:00,40.1,40.1,30.64,East,90,7.0,8.0,0,0.00,,,0.00,meteohub,2013-04-22 04:33:00,
2013-04-22 00:35:00,40.1,40.1,30.65,East,90,6.0,8.0,0,0.00,,,0.00,meteohub,2013-04-22 04:35:00,
2013-04-22 00:37:00,40.1,40.1,30.64,SE,135,7.0,8.0,0,0.00,,,0.00,meteohub,2013-04-22 04:37:00,
2013-04-22 00:38:00,40.1,40.1,30.64,SE,135,5.0,8.0,0,0.00,,,0.00,meteohub,2013-04-22 04:38:00,
2013-04-22 00:39:00,40.1,40.1,30.65,South,180,4.0,8.0,0,0.00,,,0.00,meteohub,2013-04-22 04:39:00,
2013-04-22 00:41:00,40.1,40.1,30.64,East,90,4.0,8.0,0,0.00,,,0.00,meteohub,2013-04-22 04:41:00,
2013-04-22 00:43:00,39.9,39.9,30.64,East,90,5.0,8.0,0,0.00,,,0.00,meteohub,2013-04-22 04:43:00,
2013-04-22 00:44:00,39.9,39.9,30.64,East,90,4.0,8.0,0,0.00,,,0.00,meteohub,2013-04-22 04:44:00,
2013-04-22 00:45:00,39.9,39.9,30.64,SE,135,6.0,8.0,0,0.00,,,0.00,meteohub,2013-04-22 04:45:00,
2013-04-22 00:46:00,39.9,39.9,30.64,East,90,5.0,9.0,0,0.00,,,0.00,meteohub,2013-04-22 04:46:00,
2013-04-22 00:48:00,40.1,40.1,30.64,East,90,4.0,9.0,0,0.00,,,0.00,meteohub,2013-04-22 04:48:00,
2013-04-22 00:49:00,40.1,40.1,30.64,SE,135,6.0,9.0,0,0.00,,,0.00,meteohub,2013-04-22 04:49:00,
2013-04-22 00:50:00,40.1,40.1,30.64,SE,135,4.0,9.0,0,0.00,,,0.00,meteohub,2013-04-22 04:50:00,
2013-04-22 00:52:00,40.1,40.1,30.64,East,90,5.0,9.0,0,0.00,,,0.00,meteohub,2013-04-22 04:52:00,
2013-04-22 00:54:00,40.1,40.1,30.64,NE,45,8.0,9.0,0,0.00,,,0.00,meteohub,2013-04-22 04:54:00,
2013-04-22 00:55:00,40.1,40.1,30.64,SE,135,8.0,9.0,0,0.00,,,0.00,meteohub,2013-04-22 04:55:00,
2013-04-22 00:57:00,40.1,40.1,30.64,SE,135,5.0,9.0,0,0.00,,,0.00,meteohub,2013-04-22 04:57:00,
2013-04-22 00:58:00,40.1,40.1,30.64,SE,135,5.0,9.0,0,0.00,,,0.00,meteohub,2013-04-22 04:58:00,
2013-04-22 01:00:00,39.9,39.9,30.64,SE,135,7.0,9.0,0,0.00,,,0.00,meteohub,2013-04-22 05:00:00,
2013-04-22 01:02:00,40.1,40.1,30.64,East,90,4.0,8.0,0,0.00,,,0.00,meteohub,2013-04-22 05:02:00,
2013-04-22 01:04:00,40.1,40.1,30.64,East,90,5.0,8.0,0,0.00,,,0.00,meteohub,2013-04-22 05:04:00,
2013-04-22 01:05:00,40.1,40.1,30.64,East,90,6.0,8.0,0,0.00,,,0.00,meteohub,2013-04-22 05:05:00,
2013-04-22 01:06:00,40.1,40.1,30.64,WSW,248,6.0,8.0,0,0.00,,,0.00,meteohub,2013-04-22 05:06:00,
2013-04-22 01:07:00,40.1,40.1,30.64,East,90,7.0,8.0,0,0.00,,,0.00,meteohub,2013-04-22 05:07:00,
2013-04-22 01:09:00,40.1,40.1,30.64,SE,135,5.0,8.0,0,0.00,,,0.00,meteohub,2013-04-22 05:09:00,
2013-04-22 01:11:00,39.9,39.9,30.64,South,180,5.0,8.0,0,0.00,,,0.00,meteohub,2013-04-22 05:11:00,
2013-04-22 01:13:00,39.9,39.9,30.64,East,90,6.0,8.0,0,0.00,,,0.00,meteohub,2013-04-22 05:13:00,
2013-04-22 01:14:00,39.9,39.9,30.64,SE,135,7.0,8.0,0,0.00,,,0.00,meteohub,2013-04-22 05:14:00,
2013-04-22 01:18:00,39.9,39.9,30.64,SE,135,7.0,8.0,0,0.00,,,0.00,meteohub,2013-04-22 05:18:00,
2013-04-22 01:19:00,39.9,39.9,30.64,SE,135,7.0,8.0,0,0.00,,,0.00,meteohub,2013-04-22 05:19:00,
2013-04-22 01:20:00,39.9,39.9,30.64,SE,135,7.0,8.0,0,0.00,,,0.00,meteohub,2013-04-22 05:20:00,
2013-04-22 01:23:00,39.7,39.7,30.64,East,90,7.0,8.0,0,0.00,,,0.00,meteohub,2013-04-22 05:23:00,
2013-04-22 01:25:00,39.7,39.7,30.64,SE,135,7.0,8.0,0,0.00,,,0.00,meteohub,2013-04-22 05:25:00,
2013-04-22 01:26:00,39.7,39.7,30.64,SE,135,5.0,7.0,0,0.00,,,0.00,meteohub,2013-04-22 05:26:00,
2013-04-22 01:28:00,39.7,39.7,30.64,SE,135,7.0,7.0,0,0.00,,,0.00,meteohub,2013-04-22 05:28:00,
2013-04-22 01:30:00,39.7,39.7,30.64,SE,135,5.0,7.0,0,0.00,,,0.00,meteohub,2013-04-22 05:30:00,
2013-04-22 01:31:00,39.9,39.9,30.64,East,90,7.0,7.0,0,0.00,,,0.00,meteohub,2013-04-22 05:31:00,
2013-04-22 01:32:00,39.7,39.7,30.64,SE,135,6.0,7.0,0,0.00,,,0.00,meteohub,2013-04-22 05:32:00,
2013-04-22 01:34:00,39.9,39.9,30.63,East,90,7.0,7.0,0,0.00,,,0.00,meteohub,2013-04-22 05:34:00,
2013-04-22 01:35:00,39.9,39.9,30.63,SE,135,7.0,7.0,0,0.00,,,0.00,meteohub,2013-04-22 05:35:00,
2013-04-22 01:36:00,39.7,39.7,30.64,SE,135,4.0,11.0,0,0.00,,,0.00,meteohub,2013-04-22 05:36:00,
2013-04-22 01:37:00,39.7,39.7,30.64,East,90,5.0,11.0,0,0.00,,,0.00,meteohub,2013-04-22 05:37:00,
2013-04-22 01:39:00,39.7,39.7,30.63,East,90,8.0,11.0,0,0.00,,,0.00,meteohub,2013-04-22 05:39:00,
2013-04-22 01:41:00,39.7,39.7,30.63,East,90,7.0,11.0,0,0.00,,,0.00,meteohub,2013-04-22 05:41:00,
2013-04-22 01:42:00,39.9,39.9,30.63,SE,135,8.0,11.0,0,0.00,,,0.00,meteohub,2013-04-22 05:42:00,
2013-04-22 01:43:00,39.9,39.9,30.63,East,90,7.0,11.0,0,0.00,,,0.00,meteohub,2013-04-22 05:43:00,
2013-04-22 01:45:00,39.9,39.9,30.63,East,90,6.0,11.0,0,0.00,,,0.00,meteohub,2013-04-22 05:45:00,
2013-04-22 01:46:00,40.1,40.1,30.64,SSE,158,4.0,11.0,0,0.00,,,0.00,meteohub,2013-04-22 05:46:00,
2013-04-22 01:48:00,39.9,39.9,30.63,East,90,5.0,11.0,0,0.00,,,0.00,meteohub,2013-04-22 05:48:00,
2013-04-22 01:49:00,39.9,39.9,30.63,South,180,9.0,11.0,0,0.00,,,0.00,meteohub,2013-04-22 05:49:00,
2013-04-22 01:50:00,39.9,39.9,30.63,East,90,7.0,8.0,0,0.00,,,0.00,meteohub,2013-04-22 05:50:00,
2013-04-22 01:52:00,39.9,39.9,30.63,SE,135,8.0,8.0,0,0.00,,,0.00,meteohub,2013-04-22 05:52:00,
2013-04-22 01:53:00,39.9,39.9,30.63,East,90,7.0,8.0,0,0.00,,,0.00,meteohub,2013-04-22 05:53:00,
2013-04-22 01:54:00,39.9,39.9,30.63,East,90,7.0,8.0,0,0.00,,,0.00,meteohub,2013-04-22 05:54:00,
2013-04-22 01:55:00,39.9,39.9,30.63,East,90,5.0,8.0,0,0.00,,,0.00,meteohub,2013-04-22 05:55:00,
2013-04-22 01:57:00,39.9,39.9,30.63,SE,135,6.0,10.0,0,0.00,,,0.00,meteohub,2013-04-22 05:57:00,
2013-04-22 01:59:00,39.9,39.9,30.63,ESE,113,5.0,10.0,0,0.00,,,0.00,meteohub,2013-04-22 05:59:00,
2013-04-22 02:00:00,39.9,39.9,30.63,SE,135,5.0,10.0,0,0.00,,,0.00,meteohub,2013-04-22 06:00:00,
2013-04-22 02:03:00,39.9,39.9,30.63,SE,135,5.0,10.0,0,0.00,,,0.00,meteohub,2013-04-22 06:03:00,
2013-04-22 02:04:00,39.9,39.9,30.62,SE,135,5.0,10.0,0,0.00,,,0.00,meteohub,2013-04-22 06:04:00,
2013-04-22 02:05:00,39.9,39.9,30.63,SE,135,5.0,10.0,0,0.00,,,0.00,meteohub,2013-04-22 06:05:00,
2013-04-22 02:07:00,39.9,39.9,30.62,SE,135,5.0,10.0,0,0.00,,,0.00,meteohub,2013-04-22 06:07:00,
2013-04-22 02:09:00,39.9,39.9,30.62,SE,135,7.0,10.0,0,0.00,,,0.00,meteohub,2013-04-22 06:09:00,
2013-04-22 02:10:00,39.9,39.9,30.62,East,90,5.0,10.0,0,0.00,,,0.00,meteohub,2013-04-22 06:10:00,
2013-04-22 02:11:00,39.9,39.9,30.62,SE,135,5.0,10.0,0,0.00,,,0.00,meteohub,2013-04-22 06:11:00,
2013-04-22 02:12:00,39.9,39.9,30.62,SE,135,5.0,10.0,0,0.00,,,0.00,meteohub,2013-04-22 06:12:00,
2013-04-22 02:14:00,39.9,39.9,30.62,SE,135,7.0,10.0,0,0.00,,,0.00,meteohub,2013-04-22 06:14:00,
2013-04-22 02:15:00,39.9,39.9,30.62,West,270,8.0,10.0,0,0.00,,,0.00,meteohub,2013-04-22 06:15:00,
2013-04-22 02:17:00,39.9,39.9,30.62,SE,135,7.0,10.0,0,0.00,,,0.00,meteohub,2013-04-22 06:17:00,
2013-04-22 02:18:00,39.9,39.9,30.62,SSE,158,5.0,10.0,0,0.00,,,0.00,meteohub,2013-04-22 06:18:00,
2013-04-22 02:20:00,39.9,39.9,30.62,SE,135,8.0,10.0,0,0.00,,,0.00,meteohub,2013-04-22 06:20:00,
2013-04-22 02:22:00,39.9,39.9,30.62,SE,135,5.0,10.0,0,0.00,,,0.00,meteohub,2013-04-22 06:22:00,
2013-04-22 02:23:00,39.9,39.9,30.63,SE,135,6.0,10.0,0,0.00,,,0.00,meteohub,2013-04-22 06:23:00,
2013-04-22 02:26:00,39.7,39.7,30.62,SE,135,5.0,9.0,0,0.00,,,0.00,meteohub,2013-04-22 06:26:00,
2013-04-22 02:27:00,39.7,39.7,30.62,East,90,4.0,9.0,0,0.00,,,0.00,meteohub,2013-04-22 06:27:00,
2013-04-22 02:28:00,39.7,39.7,30.62,East,90,4.0,9.0,0,0.00,,,0.00,meteohub,2013-04-22 06:28:00,
2013-04-22 02:29:00,39.7,39.7,30.62,SE,135,4.0,9.0,0,0.00,,,0.00,meteohub,2013-04-22 06:29:00,
2013-04-22 02:30:00,39.7,39.7,30.62,SE,135,7.0,9.0,0,0.00,,,0.00,meteohub,2013-04-22 06:30:00,
2013-04-22 02:32:00,39.7,39.7,30.62,SE,135,6.0,8.0,0,0.00,,,0.00,meteohub,2013-04-22 06:32:00,
2013-04-22 02:33:00,39.7,39.7,30.62,South,180,5.0,8.0,0,0.00,,,0.00,meteohub,2013-04-22 06:33:00,
2013-04-22 02:34:00,39.7,39.7,30.62,SE,135,5.0,8.0,0,0.00,,,0.00,meteohub,2013-04-22 06:34:00,
2013-04-22 02:35:00,39.7,39.7,30.62,SE,135,7.0,8.0,0,0.00,,,0.00,meteohub,2013-04-22 06:35:00,
2013-04-22 02:38:00,39.7,39.7,30.62,SE,135,6.0,8.0,0,0.00,,,0.00,meteohub,2013-04-22 06:38:00,
2013-04-22 02:39:00,39.7,39.7,30.61,SE,135,7.0,8.0,0,0.00,,,0.00,meteohub,2013-04-22 06:39:00,
2013-04-22 02:40:00,39.7,39.7,30.62,East,90,7.0,8.0,0,0.00,,,0.00,meteohub,2013-04-22 06:40:00,
2013-04-22 02:41:00,39.9,39.9,30.61,East,90,7.0,8.0,0,0.00,,,0.00,meteohub,2013-04-22 06:41:00,
2013-04-22 02:44:00,39.7,39.7,30.61,SE,135,6.0,8.0,0,0.00,,,0.00,meteohub,2013-04-22 06:44:00,
2013-04-22 02:45:00,39.7,39.7,30.62,SE,135,5.0,8.0,0,0.00,,,0.00,meteohub,2013-04-22 06:45:00,
2013-04-22 02:46:00,39.7,39.7,30.62,SE,135,5.0,7.0,0,0.00,,,0.00,meteohub,2013-04-22 06:46:00,
2013-04-22 02:50:00,39.9,39.9,30.61,South,180,11.0,11.0,0,0.00,,,0.00,meteohub,2013-04-22 06:50:00,
2013-04-22 02:51:00,39.9,39.9,30.62,East,90,5.0,11.0,0,0.00,,,0.00,meteohub,2013-04-22 06:51:00,
2013-04-22 02:55:00,39.9,39.9,30.62,SE,135,8.0,11.0,0,0.00,,,0.00,meteohub,2013-04-22 06:55:00,
2013-04-22 02:56:00,39.9,39.9,30.62,East,90,7.0,11.0,0,0.00,,,0.00,meteohub,2013-04-22 06:56:00,
2013-04-22 02:57:00,39.9,39.9,30.62,SE,135,7.0,11.0,0,0.00,,,0.00,meteohub,2013-04-22 06:57:00,
2013-04-22 03:00:00,39.7,39.7,30.62,ESE,113,8.0,11.0,0,0.00,,,0.00,meteohub,2013-04-22 07:00:00,
2013-04-22 03:01:00,39.7,39.7,30.61,ESE,113,8.0,11.0,0,0.00,,,0.00,meteohub,2013-04-22 07:01:00,
2013-04-22 03:02:00,39.7,39.7,30.61,ESE,113,8.0,11.0,0,0.00,,,0.00,meteohub,2013-04-22 07:02:00,
2013-04-22 03:03:00,39.7,39.7,30.62,ESE,113,8.0,11.0,0,0.00,,,0.00,meteohub,2013-04-22 07:03:00,
2013-04-22 03:07:00,39.7,39.7,30.61,ESE,113,8.0,8.0,0,0.00,,,0.00,meteohub,2013-04-22 07:07:00,
2013-04-22 03:08:00,39.6,39.6,30.62,SE,135,6.0,8.0,0,0.00,,,0.00,meteohub,2013-04-22 07:08:00,
2013-04-22 03:12:00,39.6,39.6,30.61,East,90,7.0,8.0,0,0.00,,,0.00,meteohub,2013-04-22 07:12:00,
2013-04-22 03:13:00,39.6,39.6,30.61,East,90,7.0,8.0,0,0.00,,,0.00,meteohub,2013-04-22 07:13:00,
2013-04-22 03:14:00,39.6,39.6,30.61,SE,135,7.0,8.0,0,0.00,,,0.00,meteohub,2013-04-22 07:14:00,
2013-04-22 03:17:00,39.6,39.6,30.61,South,180,8.0,8.0,0,0.00,,,0.00,meteohub,2013-04-22 07:17:00,
2013-04-22 03:18:00,39.6,39.6,30.61,South,180,8.0,8.0,0,0.00,,,0.00,meteohub,2013-04-22 07:18:00,
2013-04-22 03:19:00,39.6,39.6,30.61,East,90,8.0,8.0,0,0.00,,,0.00,meteohub,2013-04-22 07:19:00,
2013-04-22 03:20:00,39.6,39.6,30.61,SE,135,7.0,8.0,0,0.00,,,0.00,meteohub,2013-04-22 07:20:00,
2013-04-22 03:23:00,39.6,39.6,30.62,SE,135,7.0,8.0,0,0.00,,,0.00,meteohub,2013-04-22 07:23:00,
2013-04-22 03:24:00,39.6,39.6,30.62,SE,135,7.0,8.0,0,0.00,,,0.00,meteohub,2013-04-22 07:24:00,
2013-04-22 03:25:00,39.6,39.6,30.61,WSW,248,7.0,8.0,0,0.00,,,0.00,meteohub,2013-04-22 07:25:00,
2013-04-22 03:27:00,39.6,39.6,30.61,South,180,6.0,8.0,0,0.00,,,0.00,meteohub,2013-04-22 07:27:00,
2013-04-22 03:29:00,39.6,39.6,30.61,SSE,158,9.0,9.0,0,0.00,,,0.00,meteohub,2013-04-22 07:29:00,
2013-04-22 03:30:00,39.6,39.6,30.61,South,180,6.0,9.0,0,0.00,,,0.00,meteohub,2013-04-22 07:30:00,
2013-04-22 03:31:00,39.6,39.6,30.61,East,90,7.0,9.0,0,0.00,,,0.00,meteohub,2013-04-22 07:31:00,
2013-04-22 03:32:00,39.6,39.6,30.61,South,180,11.0,11.0,0,0.00,,,0.00,meteohub,2013-04-22 07:32:00,
2013-04-22 03:34:00,39.6,39.6,30.61,SSE,158,6.0,9.0,0,0.00,,,0.00,meteohub,2013-04-22 07:34:00,
2013-04-22 03:36:00,39.4,39.4,30.61,East,90,8.0,11.0,0,0.00,,,0.00,meteohub,2013-04-22 07:36:00,
2013-04-22 03:38:00,39.4,39.4,30.61,SE,135,9.0,11.0,0,0.00,,,0.00,meteohub,2013-04-22 07:38:00,
2013-04-22 03:39:00,39.4,39.4,30.61,SE,135,5.0,11.0,0,0.00,,,0.00,meteohub,2013-04-22 07:39:00,
2013-04-22 03:40:00,39.4,39.4,30.61,SE,135,5.0,11.0,0,0.00,,,0.00,meteohub,2013-04-22 07:40:00,
2013-04-22 03:42:00,39.4,39.4,30.61,SE,135,5.0,11.0,0,0.00,,,0.00,meteohub,2013-04-22 07:42:00,
2013-04-22 03:43:00,39.2,39.2,30.61,South,180,8.0,11.0,0,0.00,,,0.00,meteohub,2013-04-22 07:43:00,
2013-04-22 03:45:00,39.2,39.2,30.61,SSE,158,6.0,11.0,0,0.00,,,0.00,meteohub,2013-04-22 07:45:00,
2013-04-22 03:46:00,39.2,39.2,30.61,SE,135,6.0,11.0,0,0.00,,,0.00,meteohub,2013-04-22 07:46:00,
2013-04-22 03:47:00,41.0,41.0,30.61,East,90,8.0,11.0,0,0.00,,,0.00,meteohub,2013-04-22 07:47:00,
2013-04-22 03:50:00,39.2,39.2,30.61,SE,135,5.0,11.0,0,0.00,,,0.00,meteohub,2013-04-22 07:50:00,
2013-04-22 03:51:00,39.2,39.2,30.61,SE,135,5.0,9.0,0,0.00,,,0.00,meteohub,2013-04-22 07:51:00,
2013-04-22 03:52:00,39.2,39.2,30.61,SE,135,5.0,9.0,0,0.00,,,0.00,meteohub,2013-04-22 07:52:00,
2013-04-22 03:53:00,39.2,39.2,30.61,SE,135,8.0,9.0,0,0.00,,,0.00,meteohub,2013-04-22 07:53:00,
2013-04-22 03:55:00,39.2,39.2,30.62,SE,135,7.0,8.0,0,0.00,,,0.00,meteohub,2013-04-22 07:55:00,
2013-04-22 03:56:00,39.2,39.2,30.61,SE,135,8.0,8.0,0,0.00,,,0.00,meteohub,2013-04-22 07:56:00,
2013-04-22 03:57:00,39.2,39.2,30.62,SE,135,6.0,8.0,0,0.00,,,0.00,meteohub,2013-04-22 07:57:00,
2013-04-22 03:59:00,39.2,39.2,30.61,East,90,7.0,8.0,0,0.00,,,0.00,meteohub,2013-04-22 07:59:00,
2013-04-22 04:01:00,39.2,39.2,30.62,SE,135,5.0,8.0,0,0.00,,,0.00,meteohub,2013-04-22 08:01:00,
2013-04-22 04:02:00,39.2,39.2,30.61,SE,135,5.0,8.0,0,0.00,,,0.00,meteohub,2013-04-22 08:02:00,
2013-04-22 04:05:00,39.2,39.2,30.61,SE,135,5.0,8.0,0,0.00,,,0.00,meteohub,2013-04-22 08:05:00,
2013-04-22 04:06:00,39.2,39.2,30.61,SE,135,5.0,8.0,0,0.00,,,0.00,meteohub,2013-04-22 08:06:00,
2013-04-22 04:07:00,39.2,39.2,30.62,SE,135,8.0,8.0,0,0.00,,,0.00,meteohub,2013-04-22 08:07:00,
2013-04-22 04:08:00,39.0,39.0,30.62,SE,135,6.0,8.0,0,0.00,,,0.00,meteohub,2013-04-22 08:08:00,
2013-04-22 04:11:00,39.0,39.0,30.61,SE,135,7.0,8.0,0,0.00,,,0.00,meteohub,2013-04-22 08:11:00,
2013-04-22 04:12:00,39.2,39.2,30.62,East,90,7.0,8.0,0,0.00,,,0.00,meteohub,2013-04-22 08:12:00,
2013-04-22 04:13:00,39.2,39.2,30.62,SE,135,8.0,8.0,0,0.00,,,0.00,meteohub,2013-04-22 08:13:00,
2013-04-22 04:14:00,39.2,39.2,30.62,SE,135,7.0,8.0,0,0.00,,,0.00,meteohub,2013-04-22 08:14:00,
2013-04-22 04:16:00,39.2,39.2,30.62,South,180,5.0,8.0,0,0.00,,,0.00,meteohub,2013-04-22 08:16:00,
2013-04-22 04:17:00,39.0,39.0,30.61,SE,135,7.0,8.0,0,0.00,,,0.00,meteohub,2013-04-22 08:17:00,
2013-04-22 04:19:00,39.0,39.0,30.61,East,90,7.0,8.0,0,0.00,,,0.00,meteohub,2013-04-22 08:19:00,
2013-04-22 04:22:00,39.0,39.0,30.61,East,90,6.0,9.0,0,0.00,,,0.00,meteohub,2013-04-22 08:22:00,
2013-04-22 04:24:00,39.0,39.0,30.62,SE,135,6.0,9.0,0,0.00,,,0.00,meteohub,2013-04-22 08:24:00,
2013-04-22 04:25:00,39.0,39.0,30.62,SE,135,4.0,9.0,0,0.00,,,0.00,meteohub,2013-04-22 08:25:00,
2013-04-22 04:27:00,38.8,38.8,30.62,SE,135,5.0,12.0,0,0.00,,,0.00,meteohub,2013-04-22 08:27:00,
2013-04-22 04:29:00,38.8,38.8,30.61,SE,135,5.0,12.0,0,0.00,,,0.00,meteohub,2013-04-22 08:29:00,
2013-04-22 04:30:00,38.8,38.8,30.61,SE,135,6.0,12.0,0,0.00,,,0.00,meteohub,2013-04-22 08:30:00,
2013-04-22 04:32:00,38.8,38.8,30.61,SE,135,6.0,12.0,0,0.00,,,0.00,meteohub,2013-04-22 08:32:00,
2013-04-22 04:35:00,38.8,38.8,30.61,ESE,113,8.0,12.0,0,0.00,,,0.00,meteohub,2013-04-22 08:35:00,
2013-04-22 04:36:00,38.8,38.8,30.61,East,90,6.0,12.0,0,0.00,,,0.00,meteohub,2013-04-22 08:36:00,
2013-04-22 04:39:00,38.8,38.8,30.61,East,90,7.0,12.0,0,0.00,,,0.00,meteohub,2013-04-22 08:39:00,
2013-04-22 04:40:00,38.8,38.8,30.61,East,90,6.0,9.0,0,0.00,,,0.00,meteohub,2013-04-22 08:40:00,
2013-04-22 04:41:00,38.8,38.8,30.61,East,90,8.0,9.0,0,0.00,,,0.00,meteohub,2013-04-22 08:41:00,
2013-04-22 04:42:00,38.8,38.8,30.62,East,90,7.0,9.0,0,0.00,,,0.00,meteohub,2013-04-22 08:42:00,
2013-04-22 04:45:00,38.8,38.8,30.61,SSE,158,4.0,9.0,0,0.00,,,0.00,meteohub,2013-04-22 08:45:00,
2013-04-22 04:46:00,38.8,38.8,30.61,SE,135,5.0,9.0,0,0.00,,,0.00,meteohub,2013-04-22 08:46:00,
2013-04-22 04:47:00,38.7,38.7,30.62,East,90,6.0,9.0,0,0.00,,,0.00,meteohub,2013-04-22 08:47:00,
2013-04-22 04:48:00,38.7,38.7,30.61,East,90,5.0,9.0,0,0.00,,,0.00,meteohub,2013-04-22 08:48:00,
2013-04-22 04:51:00,38.7,38.7,30.61,SE,135,7.0,9.0,0,0.00,,,0.00,meteohub,2013-04-22 08:51:00,
2013-04-22 04:52:00,39.0,39.0,30.61,East,90,4.0,9.0,0,0.00,,,0.00,meteohub,2013-04-22 08:52:00,
2013-04-22 04:53:00,38.7,38.7,30.61,SE,135,5.0,9.0,0,0.00,,,0.00,meteohub,2013-04-22 08:53:00,
2013-04-22 04:57:00,38.5,38.5,30.61,East,90,6.0,8.0,0,0.00,,,0.00,meteohub,2013-04-22 08:57:00,
2013-04-22 04:59:00,38.7,38.7,30.61,SE,135,7.0,8.0,0,0.00,,,0.00,meteohub,2013-04-22 08:59:00,
2013-04-22 05:00:00,38.7,38.7,30.61,SE,135,7.0,8.0,0,0.00,,,0.00,meteohub,2013-04-22 09:00:00,
2013-04-22 05:02:00,38.7,38.7,30.61,SE,135,7.0,7.0,0,0.00,,,0.00,meteohub,2013-04-22 09:02:00,
2013-04-22 05:04:00,38.7,38.7,30.61,SE,135,7.0,7.0,0,0.00,,,0.00,meteohub,2013-04-22 09:04:00,
2013-04-22 05:05:00,38.7,38.7,30.61,SE,135,7.0,7.0,0,0.00,,,0.00,meteohub,2013-04-22 09:05:00,
2013-04-22 05:07:00,38.7,38.7,30.61,SE,135,7.0,7.0,0,0.00,,,0.00,meteohub,2013-04-22 09:07:00,
2013-04-22 05:09:00,38.7,38.7,30.61,SE,135,6.0,7.0,0,0.00,,,0.00,meteohub,2013-04-22 09:09:00,
2013-04-22 05:10:00,36.7,36.7,30.61,East,90,6.0,7.0,0,0.00,,,0.00,meteohub,2013-04-22 09:10:00,
2013-04-22 05:11:00,38.7,38.7,30.61,East,90,6.0,7.0,0,0.00,,,0.00,meteohub,2013-04-22 09:11:00,
2013-04-22 05:12:00,38.5,38.5,30.61,East,90,6.0,7.0,0,0.00,,,0.00,meteohub,2013-04-22 09:12:00,
2013-04-22 05:14:00,38.7,38.7,30.61,East,90,5.0,7.0,0,0.00,,,0.00,meteohub,2013-04-22 09:14:00,
2013-04-22 05:15:00,38.7,38.7,30.61,East,90,5.0,7.0,0,0.00,,,0.00,meteohub,2013-04-22 09:15:00,
2013-04-22 05:17:00,38.5,38.5,30.61,East,90,6.0,7.0,0,0.00,,,0.00,meteohub,2013-04-22 09:17:00,
2013-04-22 05:18:00,38.5,38.5,30.61,East,90,5.0,7.0,0,0.00,,,0.00,meteohub,2013-04-22 09:18:00,
2013-04-22 05:19:00,38.5,38.5,30.61,SE,135,9.0,9.0,0,0.00,,,0.00,meteohub,2013-04-22 09:19:00,
2013-04-22 05:20:00,38.5,38.5,30.61,SE,135,9.0,9.0,0,0.00,,,0.00,meteohub,2013-04-22 09:20:00,
2013-04-22 05:23:00,38.3,38.3,30.61,SE,135,6.0,8.0,0,0.00,,,0.00,meteohub,2013-04-22 09:23:00,
2013-04-22 05:24:00,38.3,38.3,30.61,South,180,6.0,8.0,0,0.00,,,0.00,meteohub,2013-04-22 09:24:00,
2013-04-22 05:25:00,38.5,38.5,30.61,SE,135,6.0,8.0,0,0.00,,,0.00,meteohub,2013-04-22 09:25:00,
2013-04-22 05:26:00,38.3,38.3,30.61,SE,135,7.0,9.0,0,0.00,,,0.00,meteohub,2013-04-22 09:26:00,
2013-04-22 05:28:00,38.5,38.5,30.61,South,180,7.0,9.0,0,0.00,,,0.00,meteohub,2013-04-22 09:28:00,
2013-04-22 05:30:00,38.3,38.3,30.61,East,90,6.0,9.0,0,0.00,,,0.00,meteohub,2013-04-22 09:30:00,
2013-04-22 05:31:00,38.3,38.3,30.61,East,90,5.0,9.0,0,0.00,,,0.00,meteohub,2013-04-22 09:31:00,
2013-04-22 05:32:00,38.3,38.3,30.61,East,90,5.0,9.0,0,0.00,,,0.00,meteohub,2013-04-22 09:32:00,
2013-04-22 05:34:00,38.3,38.3,30.61,East,90,5.0,9.0,0,0.00,,,0.00,meteohub,2013-04-22 09:34:00,
2013-04-22 05:36:00,38.3,38.3,30.61,East,90,8.0,9.0,0,0.00,,,0.00,meteohub,2013-04-22 09:36:00,
2013-04-22 05:37:00,38.3,38.3,30.61,SE,135,9.0,9.0,0,0.00,,,0.00,meteohub,2013-04-22 09:37:00,
2013-04-22 05:38:00,38.3,38.3,30.61,South,180,7.0,8.0,0,0.00,,,0.00,meteohub,2013-04-22 09:38:00,
2013-04-22 05:39:00,38.5,38.5,30.61,SE,135,6.0,8.0,0,0.00,,,0.00,meteohub,2013-04-22 09:39:00,
2013-04-22 05:41:00,38.5,38.5,30.61,East,90,6.0,9.0,0,0.00,,,0.00,meteohub,2013-04-22 09:41:00,
2013-04-22 05:43:00,38.5,38.5,30.61,East,90,5.0,9.0,0,0.00,,,0.00,meteohub,2013-04-22 09:43:00,
2013-04-22 05:44:00,38.5,38.5,30.61,SE,135,5.0,9.0,0,0.00,,,0.00,meteohub,2013-04-22 09:44:00,
2013-04-22 05:47:00,38.3,38.3,30.61,SE,135,6.0,9.0,0,0.00,,,0.00,meteohub,2013-04-22 09:47:00,
2013-04-22 05:48:00,38.3,38.3,30.61,East,90,5.0,9.0,0,0.00,,,0.00,meteohub,2013-04-22 09:48:00,
2013-04-22 05:49:00,38.3,38.3,30.61,East,90,5.0,9.0,0,0.00,,,0.00,meteohub,2013-04-22 09:49:00,
2013-04-22 05:50:00,38.3,38.3,30.61,SE,135,8.0,9.0,0,0.00,,,0.00,meteohub,2013-04-22 09:50:00,
2013-04-22 05:52:00,38.3,38.3,30.61,East,90,7.0,9.0,0,0.00,,,0.00,meteohub,2013-04-22 09:52:00,
2013-04-22 05:54:00,38.3,38.3,30.61,East,90,5.0,9.0,0,0.00,,,0.00,meteohub,2013-04-22 09:54:00,
2013-04-22 05:56:00,38.3,38.3,30.61,SE,135,8.0,8.0,0,0.00,,,0.00,meteohub,2013-04-22 09:56:00,
2013-04-22 05:57:00,38.3,38.3,30.61,SE,135,4.0,8.0,0,0.00,,,0.00,meteohub,2013-04-22 09:57:00,
2013-04-22 05:59:00,38.1,38.1,30.61,SE,135,5.0,8.0,0,0.00,,,0.00,meteohub,2013-04-22 09:59:00,
2013-04-22 06:00:00,38.1,38.1,30.61,SE,135,5.0,8.0,0,0.00,,,0.00,meteohub,2013-04-22 10:00:00,
2013-04-22 06:02:00,38.1,38.1,30.61,SE,135,5.0,8.0,0,0.00,,,0.00,meteohub,2013-04-22 10:02:00,
2013-04-22 06:04:00,38.1,38.1,30.61,SE,135,5.0,8.0,0,0.00,,,0.00,meteohub,2013-04-22 10:04:00,
2013-04-22 06:07:00,38.3,38.3,30.61,SE,135,8.0,8.0,0,0.00,,,0.00,meteohub,2013-04-22 10:07:00,
2013-04-22 06:08:00,38.3,38.3,30.61,SE,135,9.0,9.0,0,0.00,,,0.00,meteohub,2013-04-22 10:08:00,
2013-04-22 06:09:00,38.3,38.3,30.61,SE,135,9.0,9.0,0,0.00,,,0.00,meteohub,2013-04-22 10:09:00,
2013-04-22 06:10:00,38.3,38.3,30.61,SE,135,7.0,8.0,0,0.00,,,0.00,meteohub,2013-04-22 10:10:00,
2013-04-22 06:12:00,38.3,38.3,30.61,SE,135,9.0,9.0,0,0.00,,,0.00,meteohub,2013-04-22 10:12:00,
2013-04-22 06:13:00,38.3,38.3,30.61,SE,135,9.0,9.0,0,0.00,,,0.00,meteohub,2013-04-22 10:13:00,
2013-04-22 06:14:00,38.3,38.3,30.61,SE,135,7.0,9.0,0,0.00,,,0.00,meteohub,2013-04-22 10:14:00,
2013-04-22 06:16:00,38.3,38.3,30.62,East,90,7.0,9.0,0,0.00,,,0.00,meteohub,2013-04-22 10:16:00,
2013-04-22 06:17:00,38.3,38.3,30.62,East,90,5.0,9.0,0,0.00,,,0.00,meteohub,2013-04-22 10:17:00,
2013-04-22 06:18:00,38.3,38.3,30.62,SE,135,5.0,9.0,0,0.00,,,0.00,meteohub,2013-04-22 10:18:00,
2013-04-22 06:20:00,38.3,38.3,30.61,SE,135,8.0,9.0,0,0.00,,,0.00,meteohub,2013-04-22 10:20:00,
2013-04-22 06:21:00,38.5,38.5,30.62,East,90,4.0,9.0,0,0.00,,,0.00,meteohub,2013-04-22 10:21:00,
2013-04-22 06:23:00,38.5,38.5,30.62,SE,135,4.0,9.0,0,0.00,,,0.00,meteohub,2013-04-22 10:23:00,
2013-04-22 06:24:00,38.5,38.5,30.62,East,90,8.0,9.0,0,0.00,,,0.00,meteohub,2013-04-22 10:24:00,
2013-04-22 06:26:00,38.3,38.3,30.62,SE,135,8.0,10.0,0,0.00,,,0.00,meteohub,2013-04-22 10:26:00,
2013-04-22 06:28:00,38.3,38.3,30.62,SE,135,6.0,10.0,0,0.00,,,0.00,meteohub,2013-04-22 10:28:00,
2013-04-22 06:29:00,38.3,38.3,30.62,East,90,8.0,10.0,0,0.00,,,0.00,meteohub,2013-04-22 10:29:00,
2013-04-22 06:32:00,38.3,38.3,30.62,East,90,6.0,10.0,0,0.00,,,0.00,meteohub,2013-04-22 10:32:00,
2013-04-22 06:33:00,38.3,38.3,30.62,SE,135,4.0,10.0,0,0.00,,,0.00,meteohub,2013-04-22 10:33:00,
2013-04-22 06:35:00,38.3,38.3,30.62,SE,135,6.0,8.0,0,0.00,,,0.00,meteohub,2013-04-22 10:35:00,
2013-04-22 06:36:00,38.3,38.3,30.62,SE,135,6.0,8.0,0,0.00,,,0.00,meteohub,2013-04-22 10:36:00,
2013-04-22 06:37:00,38.3,38.3,30.62,East,90,7.0,8.0,0,0.00,,,0.00,meteohub,2013-04-22 10:37:00,
2013-04-22 06:38:00,38.5,38.5,30.62,East,90,11.0,11.0,0,0.00,,,0.00,meteohub,2013-04-22 10:38:00,
2013-04-22 06:39:00,38.5,38.5,30.62,SE,135,8.0,8.0,0,0.00,,,0.00,meteohub,2013-04-22 10:39:00,
2013-04-22 06:41:00,38.5,38.5,30.62,East,90,6.0,8.0,0,0.00,,,0.00,meteohub,2013-04-22 10:41:00,
2013-04-22 06:42:00,38.5,38.5,30.62,East,90,8.0,8.0,0,0.00,,,0.00,meteohub,2013-04-22 10:42:00,
2013-04-22 06:44:00,38.5,38.5,30.62,South,180,8.0,8.0,0,0.00,,,0.00,meteohub,2013-04-22 10:44:00,
2013-04-22 06:46:00,38.5,38.5,30.62,SE,135,7.0,11.0,0,0.00,,,0.00,meteohub,2013-04-22 10:46:00,
2013-04-22 06:49:00,38.3,38.3,30.62,SE,135,6.0,11.0,0,0.00,,,0.00,meteohub,2013-04-22 10:49:00,
2013-04-22 06:50:00,38.3,38.3,30.62,South,180,5.0,11.0,0,0.00,,,0.00,meteohub,2013-04-22 10:50:00,
2013-04-22 06:51:00,38.3,38.3,30.62,East,90,7.0,11.0,0,0.00,,,0.00,meteohub,2013-04-22 10:51:00,
2013-04-22 06:52:00,38.3,38.3,30.62,SE,135,8.0,11.0,0,0.00,,,0.00,meteohub,2013-04-22 10:52:00,
2013-04-22 06:55:00,38.3,38.3,30.62,East,90,9.0,11.0,0,0.00,,,0.00,meteohub,2013-04-22 10:55:00,
2013-04-22 06:56:00,38.3,38.3,30.62,East,90,6.0,8.0,0,0.00,,,0.00,meteohub,2013-04-22 10:56:00,
2013-04-22 06:58:00,38.3,38.3,30.63,East,90,6.0,8.0,0,0.00,,,0.00,meteohub,2013-04-22 10:58:00,
2013-04-22 07:01:00,38.3,38.3,30.63,East,90,8.0,9.0,0,0.00,,,0.00,meteohub,2013-04-22 11:01:00,
2013-04-22 07:02:00,38.3,38.3,30.63,South,180,8.0,9.0,0,0.00,,,0.00,meteohub,2013-04-22 11:02:00,
2013-04-22 07:03:00,38.3,38.3,30.63,SE,135,5.0,9.0,0,0.00,,,0.00,meteohub,2013-04-22 11:03:00,
2013-04-22 07:04:00,38.5,38.5,30.63,SE,135,4.0,9.0,0,0.00,,,0.00,meteohub,2013-04-22 11:04:00,
2013-04-22 07:07:00,38.3,38.3,30.63,SE,135,10.0,10.0,0,0.00,,,0.00,meteohub,2013-04-22 11:07:00,
2013-04-22 07:08:00,38.5,38.5,30.63,SE,135,7.0,9.0,0,0.00,,,0.00,meteohub,2013-04-22 11:08:00,
2013-04-22 07:09:00,38.5,38.5,30.63,SE,135,7.0,9.0,0,0.00,,,0.00,meteohub,2013-04-22 11:09:00,
2013-04-22 07:13:00,38.5,38.5,30.63,East,90,8.0,10.0,0,0.00,,,0.00,meteohub,2013-04-22 11:13:00,
2013-04-22 07:14:00,38.5,38.5,30.63,SE,135,9.0,10.0,0,0.00,,,0.00,meteohub,2013-04-22 11:14:00,
2013-04-22 07:15:00,38.5,38.5,30.63,SE,135,7.0,10.0,0,0.00,,,0.00,meteohub,2013-04-22 11:15:00,
2013-04-22 07:18:00,38.5,38.5,30.63,South,180,5.0,10.0,0,0.00,,,0.00,meteohub,2013-04-22 11:18:00,
2013-04-22 07:19:00,38.7,38.7,30.63,South,180,7.0,10.0,0,0.00,,,0.00,meteohub,2013-04-22 11:19:00,
2013-04-22 07:20:00,38.7,38.7,30.63,East,90,8.0,10.0,0,0.00,,,0.00,meteohub,2013-04-22 11:20:00,
2013-04-22 07:21:00,38.7,38.7,30.63,East,90,8.0,10.0,0,0.00,,,0.00,meteohub,2013-04-22 11:21:00,
2013-04-22 07:24:00,38.7,38.7,30.63,SE,135,10.0,10.0,0,0.00,,,0.00,meteohub,2013-04-22 11:24:00,
2013-04-22 07:26:00,38.8,38.8,30.63,SE,135,7.0,9.0,0,0.00,,,0.00,meteohub,2013-04-22 11:26:00,
2013-04-22 07:27:00,38.8,38.8,30.63,East,90,7.0,9.0,0,0.00,,,0.00,meteohub,2013-04-22 11:27:00,
2013-04-22 07:28:00,38.8,38.8,30.63,SE,135,11.0,11.0,0,0.00,,,0.00,meteohub,2013-04-22 11:28:00,
2013-04-22 07:29:00,38.8,38.8,30.63,SE,135,8.0,9.0,0,0.00,,,0.00,meteohub,2013-04-22 11:29:00,
2013-04-22 07:32:00,39.0,39.0,30.62,East,90,11.0,11.0,0,0.00,,,0.00,meteohub,2013-04-22 11:32:00,
2013-04-22 07:33:00,39.0,39.0,30.62,SE,135,9.0,11.0,0,0.00,,,0.00,meteohub,2013-04-22 11:33:00,
2013-04-22 07:34:00,39.0,39.0,30.63,SE,135,7.0,11.0,0,0.00,,,0.00,meteohub,2013-04-22 11:34:00,
2013-04-22 07:37:00,39.0,39.0,30.63,East,90,10.0,11.0,0,0.00,,,0.00,meteohub,2013-04-22 11:37:00,
2013-04-22 07:38:00,39.0,39.0,30.62,East,90,8.0,11.0,0,0.00,,,0.00,meteohub,2013-04-22 11:38:00,
2013-04-22 07:39:00,39.0,39.0,30.62,SE,135,7.0,11.0,0,0.00,,,0.00,meteohub,2013-04-22 11:39:00,
2013-04-22 07:40:00,39.0,39.0,30.63,SE,135,5.0,11.0,0,0.00,,,0.00,meteohub,2013-04-22 11:40:00,
2013-04-22 07:42:00,39.0,39.0,30.62,East,90,8.0,11.0,0,0.00,,,0.00,meteohub,2013-04-22 11:42:00,
2013-04-22 07:44:00,39.0,39.0,30.63,SE,135,8.0,11.0,0,0.00,,,0.00,meteohub,2013-04-22 11:44:00,
2013-04-22 07:45:00,39.0,39.0,30.63,SE,135,7.0,11.0,0,0.00,,,0.00,meteohub,2013-04-22 11:45:00,
2013-04-22 07:47:00,39.0,39.0,30.64,SE,135,7.0,11.0,0,0.00,,,0.00,meteohub,2013-04-22 11:47:00,
2013-04-22 07:49:00,39.0,39.0,30.63,East,90,7.0,11.0,0,0.00,,,0.00,meteohub,2013-04-22 11:49:00,
2013-04-22 07:50:00,39.0,39.0,30.63,East,90,5.0,10.0,0,0.00,,,0.00,meteohub,2013-04-22 11:50:00,
2013-04-22 07:51:00,39.0,39.0,30.63,SE,135,7.0,10.0,0,0.00,,,0.00,meteohub,2013-04-22 11:51:00,
2013-04-22 07:52:00,39.0,39.0,30.63,SE,135,7.0,10.0,0,0.00,,,0.00,meteohub,2013-04-22 11:52:00,
2013-04-22 07:53:00,39.0,39.0,30.63,East,90,7.0,10.0,0,0.00,,,0.00,meteohub,2013-04-22 11:53:00,
2013-04-22 07:55:00,39.0,39.0,30.63,SE,135,7.0,10.0,0,0.00,,,0.00,meteohub,2013-04-22 11:55:00,
2013-04-22 07:56:00,39.0,39.0,30.64,SE,135,6.0,9.0,0,0.00,,,0.00,meteohub,2013-04-22 11:56:00,
2013-04-22 07:57:00,39.0,39.0,30.63,SE,135,8.0,9.0,0,0.00,,,0.00,meteohub,2013-04-22 11:57:00,
2013-04-22 07:58:00,39.0,39.0,30.63,East,90,9.0,9.0,0,0.00,,,0.00,meteohub,2013-04-22 11:58:00,
2013-04-22 07:59:00,39.0,39.0,30.63,SE,135,8.0,9.0,0,0.00,,,0.00,meteohub,2013-04-22 11:59:00,
2013-04-22 08:00:00,39.0,39.0,30.63,SE,135,8.0,11.0,0,0.00,,,0.00,meteohub,2013-04-22 12:00:00,
2013-04-22 08:02:00,39.0,39.0,30.63,East,90,6.0,11.0,0,0.00,,,0.00,meteohub,2013-04-22 12:02:00,
2013-04-22 08:04:00,39.2,39.2,30.64,SE,135,8.0,11.0,0,0.00,,,0.00,meteohub,2013-04-22 12:04:00,
2013-04-22 08:05:00,39.2,39.2,30.63,East,90,7.0,11.0,0,0.00,,,0.00,meteohub,2013-04-22 12:05:00,
2013-04-22 08:06:00,39.2,39.2,30.63,East,90,8.0,11.0,0,0.00,,,0.00,meteohub,2013-04-22 12:06:00,
2013-04-22 08:07:00,39.2,39.2,30.63,SE,135,8.0,11.0,0,0.00,,,0.00,meteohub,2013-04-22 12:07:00,
2013-04-22 08:10:00,39.2,39.2,30.63,SE,135,10.0,11.0,0,0.00,,,0.00,meteohub,2013-04-22 12:10:00,
2013-04-22 08:11:00,39.2,39.2,30.63,SE,135,9.0,11.0,0,0.00,,,0.00,meteohub,2013-04-22 12:11:00,
2013-04-22 08:12:00,39.2,39.2,30.63,East,90,8.0,11.0,0,0.00,,,0.00,meteohub,2013-04-22 12:12:00,
2013-04-22 08:15:00,39.2,39.2,30.63,East,90,10.0,10.0,0,0.00,,,0.00,meteohub,2013-04-22 12:15:00,
2013-04-22 08:17:00,39.2,39.2,30.63,SE,135,7.0,10.0,0,0.00,,,0.00,meteohub,2013-04-22 12:17:00,
2013-04-22 08:18:00,39.2,39.2,30.63,East,90,7.0,10.0,0,0.00,,,0.00,meteohub,2013-04-22 12:18:00,
2013-04-22 08:22:00,39.6,39.6,30.63,SE,135,9.0,10.0,0,0.00,,,0.00,meteohub,2013-04-22 12:22:00,
2013-04-22 08:23:00,39.4,39.4,30.63,SE,135,8.0,10.0,0,0.00,,,0.00,meteohub,2013-04-22 12:23:00,
2013-04-22 08:24:00,39.4,39.4,30.63,SE,135,8.0,10.0,0,0.00,,,0.00,meteohub,2013-04-22 12:24:00,
2013-04-22 08:28:00,39.7,39.7,30.63,SE,135,9.0,10.0,0,0.00,,,0.00,meteohub,2013-04-22 12:28:00,
2013-04-22 08:29:00,39.7,39.7,30.63,East,90,8.0,10.0,0,0.00,,,0.00,meteohub,2013-04-22 12:29:00,
2013-04-22 08:30:00,39.7,39.7,30.63,East,90,10.0,10.0,0,0.00,,,0.00,meteohub,2013-04-22 12:30:00,
2013-04-22 08:33:00,39.7,39.7,30.63,SE,135,11.0,11.0,0,0.00,,,0.00,meteohub,2013-04-22 12:33:00,
2013-04-22 08:35:00,39.7,39.7,30.63,East,90,8.0,10.0,0,0.00,,,0.00,meteohub,2013-04-22 12:35:00,
2013-04-22 08:36:00,39.7,39.7,30.63,East,90,12.0,12.0,0,0.00,,,0.00,meteohub,2013-04-22 12:36:00,
2013-04-22 08:39:00,39.7,39.7,30.63,SE,135,8.0,11.0,0,0.00,,,0.00,meteohub,2013-04-22 12:39:00,
2013-04-22 08:40:00,39.9,39.9,30.63,SE,135,9.0,11.0,0,0.00,,,0.00,meteohub,2013-04-22 12:40:00,
2013-04-22 08:41:00,40.1,40.1,30.63,East,90,6.0,12.0,0,0.00,,,0.00,meteohub,2013-04-22 12:41:00,
2013-04-22 08:43:00,40.1,40.1,30.63,East,90,8.0,12.0,0,0.00,,,0.00,meteohub,2013-04-22 12:43:00,
2013-04-22 08:44:00,40.5,40.5,30.63,SE,135,6.0,12.0,0,0.00,,,0.00,meteohub,2013-04-22 12:44:00,
2013-04-22 08:45:00,40.6,40.6,30.63,SE,135,7.0,12.0,0,0.00,,,0.00,meteohub,2013-04-22 12:45:00,
2013-04-22 08:46:00,40.8,40.8,30.63,East,90,8.0,12.0,0,0.00,,,0.00,meteohub,2013-04-22 12:46:00,
2013-04-22 08:47:00,40.8,40.8,30.63,East,90,8.0,12.0,0,0.00,,,0.00,meteohub,2013-04-22 12:47:00,
2013-04-22 08:49:00,41.2,41.2,30.64,SE,135,7.0,12.0,0,0.00,,,0.00,meteohub,2013-04-22 12:49:00,
2013-04-22 08:50:00,41.4,41.4,30.64,South,180,6.0,12.0,0,0.00,,,0.00,meteohub,2013-04-22 12:50:00,
2013-04-22 08:52:00,41.5,41.5,30.64,East,90,6.0,12.0,0,0.00,,,0.00,meteohub,2013-04-22 12:52:00,
2013-04-22 08:53:00,41.5,41.5,30.64,WSW,248,8.0,12.0,0,0.00,,,0.00,meteohub,2013-04-22 12:53:00,
2013-04-22 08:55:00,41.7,41.7,30.63,East,90,6.0,12.0,0,0.00,,,0.00,meteohub,2013-04-22 12:55:00,
2013-04-22 08:56:00,41.9,41.9,30.63,SE,135,6.0,9.0,0,0.00,,,0.00,meteohub,2013-04-22 12:56:00,
2013-04-22 08:57:00,41.9,41.9,30.64,East,90,5.0,9.0,0,0.00,,,0.00,meteohub,2013-04-22 12:57:00,
2013-04-22 08:58:00,42.1,42.1,30.63,SE,135,6.0,9.0,0,0.00,,,0.00,meteohub,2013-04-22 12:58:00,
2013-04-22 09:00:00,42.3,42.3,30.64,South,180,6.0,8.0,0,0.00,,,0.00,meteohub,2013-04-22 13:00:00,
2013-04-22 09:01:00,42.3,42.3,30.63,South,180,6.0,8.0,0,0.00,,,0.00,meteohub,2013-04-22 13:01:00,
2013-04-22 09:02:00,42.4,42.4,30.64,SE,135,11.0,11.0,0,0.00,,,0.00,meteohub,2013-04-22 13:02:00,
2013-04-22 09:03:00,42.4,42.4,30.64,SE,135,8.0,8.0,0,0.00,,,0.00,meteohub,2013-04-22 13:03:00,
2013-04-22 09:05:00,42.4,42.4,30.64,SE,135,7.0,11.0,0,0.00,,,0.00,meteohub,2013-04-22 13:05:00,
2013-04-22 09:07:00,42.6,42.6,30.63,East,90,8.0,11.0,0,0.00,,,0.00,meteohub,2013-04-22 13:07:00,
2013-04-22 09:08:00,42.6,42.6,30.64,South,180,6.0,11.0,0,0.00,,,0.00,meteohub,2013-04-22 13:08:00,
2013-04-22 09:09:00,42.6,42.6,30.64,South,180,8.0,11.0,0,0.00,,,0.00,meteohub,2013-04-22 13:09:00,
2013-04-22 09:10:00,42.6,42.6,30.64,SE,135,9.0,11.0,0,0.00,,,0.00,meteohub,2013-04-22 13:10:00,
2013-04-22 09:11:00,42.8,42.8,30.64,SE,135,7.0,11.0,0,0.00,,,0.00,meteohub,2013-04-22 13:11:00,
2013-04-22 09:12:00,42.8,42.8,30.64,SE,135,7.0,11.0,0,0.00,,,0.00,meteohub,2013-04-22 13:12:00,
2013-04-22 09:14:00,42.8,42.8,30.64,WSW,248,8.0,11.0,0,0.00,,,0.00,meteohub,2013-04-22 13:14:00,
2013-04-22 09:15:00,42.8,42.8,30.64,SE,135,7.0,11.0,0,0.00,,,0.00,meteohub,2013-04-22 13:15:00,
2013-04-22 09:16:00,42.8,42.8,30.64,SE,135,7.0,11.0,0,0.00,,,0.00,meteohub,2013-04-22 13:16:00,
2013-04-22 09:17:00,42.4,42.4,30.64,East,90,8.0,11.0,0,0.00,,,0.00,meteohub,2013-04-22 13:17:00,
2013-04-22 09:18:00,42.4,42.4,30.64,East,90,8.0,11.0,0,0.00,,,0.00,meteohub,2013-04-22 13:18:00,
2013-04-22 09:20:00,42.6,42.6,30.64,SE,135,9.0,9.0,0,0.00,,,0.00,meteohub,2013-04-22 13:20:00,
2013-04-22 09:21:00,42.6,42.6,30.64,SE,135,8.0,9.0,0,0.00,,,0.00,meteohub,2013-04-22 13:21:00,
2013-04-22 09:22:00,42.8,42.8,30.64,SE,135,13.0,13.0,0,0.00,,,0.00,meteohub,2013-04-22 13:22:00,
2013-04-22 09:23:00,43.0,43.0,30.64,SE,135,8.0,9.0,0,0.00,,,0.00,meteohub,2013-04-22 13:23:00,
2013-04-22 09:26:00,43.3,43.3,30.64,East,90,15.0,15.0,0,0.00,,,0.00,meteohub,2013-04-22 13:26:00,
2013-04-22 09:27:00,43.2,43.2,30.64,East,90,14.0,15.0,0,0.00,,,0.00,meteohub,2013-04-22 13:27:00,
2013-04-22 09:28:00,43.2,43.2,30.63,ESE,113,8.0,15.0,0,0.00,,,0.00,meteohub,2013-04-22 13:28:00,
2013-04-22 09:29:00,43.3,43.3,30.64,SE,135,7.0,15.0,0,0.00,,,0.00,meteohub,2013-04-22 13:29:00,
2013-04-22 09:31:00,43.3,43.3,30.64,East,90,8.0,15.0,0,0.00,,,0.00,meteohub,2013-04-22 13:31:00,
2013-04-22 09:32:00,43.5,43.5,30.64,SE,135,8.0,15.0,0,0.00,,,0.00,meteohub,2013-04-22 13:32:00,
2013-04-22 09:34:00,43.5,43.5,30.64,SE,135,8.0,15.0,0,0.00,,,0.00,meteohub,2013-04-22 13:34:00,
2013-04-22 09:37:00,43.7,43.7,30.64,East,90,7.0,15.0,0,0.00,,,0.00,meteohub,2013-04-22 13:37:00,
2013-04-22 09:39:00,43.9,43.9,30.64,SE,135,8.0,15.0,0,0.00,,,0.00,meteohub,2013-04-22 13:39:00,
2013-04-22 09:40:00,44.1,44.1,30.64,SE,135,11.0,15.0,0,0.00,,,0.00,meteohub,2013-04-22 13:40:00,
2013-04-22 09:41:00,44.2,44.2,30.64,East,90,7.0,15.0,0,0.00,,,0.00,meteohub,2013-04-22 13:41:00,
2013-04-22 09:42:00,44.2,44.2,30.64,SE,135,8.0,15.0,0,0.00,,,0.00,meteohub,2013-04-22 13:42:00,
2013-04-22 09:43:00,44.4,44.4,30.64,SE,135,9.0,15.0,0,0.00,,,0.00,meteohub,2013-04-22 13:43:00,
2013-04-22 09:45:00,44.1,44.1,30.64,SE,135,8.0,15.0,0,0.00,,,0.00,meteohub,2013-04-22 13:45:00,
2013-04-22 09:46:00,44.1,44.1,30.64,SE,135,8.0,11.0,0,0.00,,,0.00,meteohub,2013-04-22 13:46:00,
2013-04-22 09:48:00,43.9,43.9,30.64,East,90,9.0,11.0,0,0.00,,,0.00,meteohub,2013-04-22 13:48:00,
2013-04-22 09:51:00,43.9,43.9,30.64,East,90,8.0,11.0,0,0.00,,,0.00,meteohub,2013-04-22 13:51:00,
2013-04-22 09:52:00,43.9,43.9,30.64,East,90,8.0,11.0,0,0.00,,,0.00,meteohub,2013-04-22 13:52:00,
2013-04-22 09:53:00,44.1,44.1,30.64,SE,135,11.0,11.0,0,0.00,,,0.00,meteohub,2013-04-22 13:53:00,
2013-04-22 09:54:00,44.1,44.1,30.64,SE,135,9.0,11.0,0,0.00,,,0.00,meteohub,2013-04-22 13:54:00,
2013-04-22 09:57:00,44.1,44.1,30.64,ESE,113,8.0,11.0,0,0.00,,,0.00,meteohub,2013-04-22 13:57:00,
2013-04-22 09:59:00,44.4,44.4,30.64,East,90,9.0,11.0,0,0.00,,,0.00,meteohub,2013-04-22 13:59:00,
2013-04-22 10:00:00,44.4,44.4,30.64,East,90,9.0,11.0,0,0.00,,,0.00,meteohub,2013-04-22 14:00:00,
2013-04-22 10:02:00,44.4,44.4,30.65,South,180,8.0,11.0,0,0.00,,,0.00,meteohub,2013-04-22 14:02:00,
2013-04-22 10:03:00,44.6,44.6,30.64,South,180,8.0,11.0,0,0.00,,,0.00,meteohub,2013-04-22 14:03:00,
2013-04-22 10:05:00,45.0,45.0,30.64,East,90,8.0,11.0,0,0.00,,,0.00,meteohub,2013-04-22 14:05:00,
2013-04-22 10:07:00,45.5,45.5,30.64,South,180,8.0,11.0,0,0.00,,,0.00,meteohub,2013-04-22 14:07:00,
2013-04-22 10:08:00,45.7,45.7,30.64,South,180,7.0,11.0,0,0.00,,,0.00,meteohub,2013-04-22 14:08:00,
2013-04-22 10:09:00,45.7,45.7,30.64,South,180,7.0,11.0,0,0.00,,,0.00,meteohub,2013-04-22 14:09:00,
2013-04-22 10:10:00,46.2,46.2,30.65,East,90,8.0,11.0,0,0.00,,,0.00,meteohub,2013-04-22 14:10:00,
2013-04-22 10:13:00,45.9,45.9,30.64,East,90,9.0,11.0,0,0.00,,,0.00,meteohub,2013-04-22 14:13:00,
2013-04-22 10:14:00,46.0,46.0,30.64,SE,135,7.0,11.0,0,0.00,,,0.00,meteohub,2013-04-22 14:14:00,
2013-04-22 10:15:00,46.0,46.0,30.64,SE,135,7.0,11.0,0,0.00,,,0.00,meteohub,2013-04-22 14:15:00,
2013-04-22 10:16:00,46.0,46.0,30.64,SE,135,7.0,11.0,0,0.00,,,0.00,meteohub,2013-04-22 14:16:00,
2013-04-22 10:17:00,46.6,46.6,30.64,SE,135,8.0,11.0,0,0.00,,,0.00,meteohub,2013-04-22 14:17:00,
2013-04-22 10:18:00,46.9,46.9,30.64,SE,135,12.0,12.0,0,0.00,,,0.00,meteohub,2013-04-22 14:18:00,
2013-04-22 10:20:00,46.6,46.6,30.64,East,90,9.0,12.0,0,0.00,,,0.00,meteohub,2013-04-22 14:20:00,
2013-04-22 10:22:00,46.4,46.4,30.64,South,180,10.0,12.0,0,0.00,,,0.00,meteohub,2013-04-22 14:22:00,
2013-04-22 10:23:00,46.6,46.6,30.64,SE,135,8.0,12.0,0,0.00,,,0.00,meteohub,2013-04-22 14:23:00,
2013-04-22 10:26:00,46.4,46.4,30.64,SE,135,11.0,12.0,0,0.00,,,0.00,meteohub,2013-04-22 14:26:00,
2013-04-22 10:27:00,46.4,46.4,30.64,East,90,8.0,12.0,0,0.00,,,0.00,meteohub,2013-04-22 14:27:00,
2013-04-22 10:28:00,46.6,46.6,30.64,South,180,7.0,12.0,0,0.00,,,0.00,meteohub,2013-04-22 14:28:00,
2013-04-22 10:30:00,46.6,46.6,30.64,SE,135,8.0,12.0,0,0.00,,,0.00,meteohub,2013-04-22 14:30:00,
2013-04-22 10:32:00,46.9,46.9,30.64,SE,135,8.0,12.0,0,0.00,,,0.00,meteohub,2013-04-22 14:32:00,
2013-04-22 10:33:00,47.1,47.1,30.64,South,180,10.0,12.0,0,0.00,,,0.00,meteohub,2013-04-22 14:33:00,
2013-04-22 10:35:00,47.3,47.3,30.64,East,90,7.0,12.0,0,0.00,,,0.00,meteohub,2013-04-22 14:35:00,
2013-04-22 10:38:00,47.3,47.3,30.64,SE,135,8.0,11.0,0,0.00,,,0.00,meteohub,2013-04-22 14:38:00,
2013-04-22 10:39:00,47.5,47.5,30.64,SE,135,6.0,11.0,0,0.00,,,0.00,meteohub,2013-04-22 14:39:00,
2013-04-22 10:40:00,47.7,47.7,30.64,East,90,7.0,11.0,0,0.00,,,0.00,meteohub,2013-04-22 14:40:00,
2013-04-22 10:44:00,47.7,47.7,30.64,East,90,9.0,11.0,0,0.00,,,0.00,meteohub,2013-04-22 14:44:00,
2013-04-22 10:45:00,47.7,47.7,30.64,East,90,10.0,11.0,0,0.00,,,0.00,meteohub,2013-04-22 14:45:00,
2013-04-22 10:46:00,47.7,47.7,30.64,East,90,10.0,14.0,0,0.00,,,0.00,meteohub,2013-04-22 14:46:00,
2013-04-22 10:49:00,48.6,48.6,30.64,SE,135,5.0,14.0,0,0.00,,,0.00,meteohub,2013-04-22 14:49:00,
2013-04-22 10:50:00,49.1,49.1,30.64,SE,135,8.0,14.0,0,0.00,,,0.00,meteohub,2013-04-22 14:50:00,
2013-04-22 10:51:00,49.1,49.1,30.64,SE,135,8.0,14.0,0,0.00,,,0.00,meteohub,2013-04-22 14:51:00,
2013-04-22 10:52:00,49.3,49.3,30.64,NE,45,7.0,14.0,0,0.00,,,0.00,meteohub,2013-04-22 14:52:00,
2013-04-22 10:55:00,49.6,49.6,30.64,ESE,113,8.0,14.0,0,0.00,,,0.00,meteohub,2013-04-22 14:55:00,
2013-04-22 10:56:00,49.5,49.5,30.64,East,90,8.0,14.0,0,0.00,,,0.00,meteohub,2013-04-22 14:56:00,
2013-04-22 10:57:00,49.5,49.5,30.64,South,180,7.0,14.0,0,0.00,,,0.00,meteohub,2013-04-22 14:57:00,
2013-04-22 10:59:00,49.8,49.8,30.63,East,90,6.0,14.0,0,0.00,,,0.00,meteohub,2013-04-22 14:59:00,
2013-04-22 11:02:00,50.0,50.0,30.63,East,90,6.0,10.0,0,0.00,,,0.00,meteohub,2013-04-22 15:02:00,
2013-04-22 11:04:00,49.8,49.8,30.63,WSW,248,10.0,10.0,0,0.00,,,0.00,meteohub,2013-04-22 15:04:00,
2013-04-22 11:07:00,50.0,50.0,30.63,SE,135,8.0,9.0,0,0.00,,,0.00,meteohub,2013-04-22 15:07:00,
2013-04-22 11:09:00,49.8,49.8,30.63,East,90,8.0,9.0,0,0.00,,,0.00,meteohub,2013-04-22 15:09:00,
2013-04-22 11:12:00,49.5,49.5,30.63,SE,135,11.0,11.0,0,0.00,,,0.00,meteohub,2013-04-22 15:12:00,
2013-04-22 11:13:00,49.5,49.5,30.64,SE,135,9.0,10.0,0,0.00,,,0.00,meteohub,2013-04-22 15:13:00,
2013-04-22 11:14:00,49.5,49.5,30.63,SE,135,6.0,10.0,0,0.00,,,0.00,meteohub,2013-04-22 15:14:00,
2013-04-22 11:16:00,49.6,49.6,30.63,South,180,8.0,11.0,0,0.00,,,0.00,meteohub,2013-04-22 15:16:00,
2013-04-22 11:18:00,50.0,50.0,30.63,ESE,113,5.0,11.0,0,0.00,,,0.00,meteohub,2013-04-22 15:18:00,
2013-04-22 11:19:00,50.2,50.2,30.63,South,180,6.0,11.0,0,0.00,,,0.00,meteohub,2013-04-22 15:19:00,
2013-04-22 11:20:00,50.7,50.7,30.63,SE,135,6.0,11.0,0,0.00,,,0.00,meteohub,2013-04-22 15:20:00,
2013-04-22 11:22:00,50.9,50.9,30.63,South,180,7.0,11.0,0,0.00,,,0.00,meteohub,2013-04-22 15:22:00,
2013-04-22 11:23:00,51.1,51.1,30.63,SE,135,8.0,11.0,0,0.00,,,0.00,meteohub,2013-04-22 15:23:00,
2013-04-22 11:24:00,50.9,50.9,30.63,ESE,113,8.0,11.0,0,0.00,,,0.00,meteohub,2013-04-22 15:24:00,
2013-04-22 11:26:00,50.7,50.7,30.63,South,180,8.0,11.0,0,0.00,,,0.00,meteohub,2013-04-22 15:26:00,
2013-04-22 11:27:00,50.7,50.7,30.62,East,90,7.0,11.0,0,0.00,,,0.00,meteohub,2013-04-22 15:27:00,
2013-04-22 11:28:00,50.5,50.5,30.62,SE,135,4.0,11.0,0,0.00,,,0.00,meteohub,2013-04-22 15:28:00,
2013-04-22 11:29:00,50.5,50.5,30.63,SE,135,6.0,11.0,0,0.00,,,0.00,meteohub,2013-04-22 15:29:00,
2013-04-22 11:30:00,50.5,50.5,30.63,East,90,8.0,11.0,0,0.00,,,0.00,meteohub,2013-04-22 15:30:00,
2013-04-22 11:31:00,50.4,50.4,30.63,East,90,13.0,13.0,0,0.00,,,0.00,meteohub,2013-04-22 15:31:00,
2013-04-22 11:32:00,50.2,50.2,30.62,SE,135,7.0,11.0,0,0.00,,,0.00,meteohub,2013-04-22 15:32:00,
2013-04-22 11:33:00,50.2,50.2,30.62,SE,135,8.0,11.0,0,0.00,,,0.00,meteohub,2013-04-22 15:33:00,
2013-04-22 11:34:00,50.2,50.2,30.62,ESE,113,4.0,11.0,0,0.00,,,0.00,meteohub,2013-04-22 15:34:00,
2013-04-22 11:36:00,50.5,50.5,30.62,East,90,7.0,13.0,0,0.00,,,0.00,meteohub,2013-04-22 15:36:00,
2013-04-22 11:37:00,50.5,50.5,30.62,South,180,10.0,13.0,0,0.00,,,0.00,meteohub,2013-04-22 15:37:00,
2013-04-22 11:38:00,50.4,50.4,30.62,SSE,158,17.0,17.0,0,0.00,,,0.00,meteohub,2013-04-22 15:38:00,
2013-04-22 11:39:00,50.4,50.4,30.62,SE,135,7.0,13.0,0,0.00,,,0.00,meteohub,2013-04-22 15:39:00,
2013-04-22 11:42:00,50.4,50.4,30.62,South,180,8.0,17.0,0,0.00,,,0.00,meteohub,2013-04-22 15:42:00,
2013-04-22 11:43:00,50.2,50.2,30.62,East,90,6.0,17.0,0,0.00,,,0.00,meteohub,2013-04-22 15:43:00,
2013-04-22 11:44:00,50.2,50.2,30.62,SE,135,8.0,17.0,0,0.00,,,0.00,meteohub,2013-04-22 15:44:00,
2013-04-22 11:46:00,50.2,50.2,30.62,SE,135,7.0,17.0,0,0.00,,,0.00,meteohub,2013-04-22 15:46:00,
2013-04-22 11:47:00,50.2,50.2,30.62,SE,135,7.0,17.0,0,0.00,,,0.00,meteohub,2013-04-22 15:47:00,
2013-04-22 11:48:00,50.5,50.5,30.62,SE,135,5.0,17.0,0,0.00,,,0.00,meteohub,2013-04-22 15:48:00,
2013-04-22 11:51:00,51.1,51.1,30.61,South,180,7.0,17.0,0,0.00,,,0.00,meteohub,2013-04-22 15:51:00,
2013-04-22 11:52:00,51.1,51.1,30.61,South,180,7.0,17.0,0,0.00,,,0.00,meteohub,2013-04-22 15:52:00,
2013-04-22 11:53:00,51.3,51.3,30.61,SE,135,6.0,17.0,0,0.00,,,0.00,meteohub,2013-04-22 15:53:00,
2013-04-22 11:54:00,51.3,51.3,30.61,East,90,7.0,17.0,0,0.00,,,0.00,meteohub,2013-04-22 15:54:00,
2013-04-22 11:56:00,51.6,51.6,30.61,SE,135,5.0,11.0,0,0.00,,,0.00,meteohub,2013-04-22 15:56:00,
2013-04-22 11:57:00,51.8,51.8,30.61,East,90,9.0,11.0,0,0.00,,,0.00,meteohub,2013-04-22 15:57:00,
2013-04-22 11:58:00,52.0,52.0,30.61,East,90,5.0,11.0,0,0.00,,,0.00,meteohub,2013-04-22 15:58:00,
2013-04-22 11:59:00,52.0,52.0,30.61,SE,135,5.0,11.0,0,0.00,,,0.00,meteohub,2013-04-22 15:59:00,
2013-04-22 12:02:00,52.3,52.3,30.61,East,90,5.0,11.0,0,0.00,,,0.00,meteohub,2013-04-22 16:02:00,
2013-04-22 12:03:00,52.5,52.5,30.61,NE,45,5.0,11.0,0,0.00,,,0.00,meteohub,2013-04-22 16:03:00,
2013-04-22 12:04:00,52.5,52.5,30.61,South,180,9.0,11.0,0,0.00,,,0.00,meteohub,2013-04-22 16:04:00,
2013-04-22 12:05:00,52.7,52.7,30.61,South,180,4.0,11.0,0,0.00,,,0.00,meteohub,2013-04-22 16:05:00,
2013-04-22 12:07:00,52.5,52.5,30.61,SE,135,6.0,9.0,0,0.00,,,0.00,meteohub,2013-04-22 16:07:00,
2013-04-22 12:09:00,52.5,52.5,30.61,SE,135,5.0,9.0,0,0.00,,,0.00,meteohub,2013-04-22 16:09:00,
2013-04-22 12:10:00,52.7,52.7,30.61,East,90,5.0,9.0,0,0.00,,,0.00,meteohub,2013-04-22 16:10:00,
2013-04-22 12:12:00,52.9,52.9,30.61,South,180,8.0,9.0,0,0.00,,,0.00,meteohub,2013-04-22 16:12:00,
2013-04-22 12:13:00,52.9,52.9,30.61,SE,135,6.0,9.0,0,0.00,,,0.00,meteohub,2013-04-22 16:13:00,
2013-04-22 12:14:00,52.9,52.9,30.61,SSE,158,8.0,9.0,0,0.00,,,0.00,meteohub,2013-04-22 16:14:00,
2013-04-22 12:15:00,52.7,52.7,30.60,South,180,10.0,10.0,0,0.00,,,0.00,meteohub,2013-04-22 16:15:00,
2013-04-22 12:17:00,52.3,52.3,30.61,South,180,8.0,9.0,0,0.00,,,0.00,meteohub,2013-04-22 16:17:00,
2013-04-22 12:19:00,52.5,52.5,30.60,East,90,9.0,9.0,0,0.00,,,0.00,meteohub,2013-04-22 16:19:00,
2013-04-22 12:20:00,52.5,52.5,30.60,East,90,9.0,9.0,0,0.00,,,0.00,meteohub,2013-04-22 16:20:00,
2013-04-22 12:21:00,52.5,52.5,30.60,SE,135,7.0,10.0,0,0.00,,,0.00,meteohub,2013-04-22 16:21:00,
2013-04-22 12:23:00,52.7,52.7,30.60,East,90,4.0,10.0,0,0.00,,,0.00,meteohub,2013-04-22 16:23:00,
2013-04-22 12:24:00,52.7,52.7,30.60,SE,135,6.0,10.0,0,0.00,,,0.00,meteohub,2013-04-22 16:24:00,
2013-04-22 12:25:00,52.9,52.9,30.60,East,90,6.0,10.0,0,0.00,,,0.00,meteohub,2013-04-22 16:25:00,
2013-04-22 12:26:00,52.9,52.9,30.60,East,90,6.0,10.0,0,0.00,,,0.00,meteohub,2013-04-22 16:26:00,
2013-04-22 12:30:00,52.9,52.9,30.59,West,270,7.0,10.0,0,0.00,,,0.00,meteohub,2013-04-22 16:30:00,
2013-04-22 12:31:00,52.9,52.9,30.60,West,270,7.0,10.0,0,0.00,,,0.00,meteohub,2013-04-22 16:31:00,
2013-04-22 12:36:00,53.1,53.1,30.60,South,180,8.0,8.0,0,0.00,,,0.00,meteohub,2013-04-22 16:36:00,
2013-04-22 12:37:00,52.9,52.9,30.59,East,90,4.0,8.0,0,0.00,,,0.00,meteohub,2013-04-22 16:37:00,
2013-04-22 12:38:00,52.9,52.9,30.60,SE,135,5.0,8.0,0,0.00,,,0.00,meteohub,2013-04-22 16:38:00,
2013-04-22 12:42:00,53.4,53.4,30.59,SE,135,6.0,9.0,0,0.00,,,0.00,meteohub,2013-04-22 16:42:00,
2013-04-22 12:43:00,53.4,53.4,30.60,SE,135,6.0,9.0,0,0.00,,,0.00,meteohub,2013-04-22 16:43:00,
2013-04-22 12:44:00,53.8,53.8,30.59,NE,45,2.0,9.0,0,0.00,,,0.00,meteohub,2013-04-22 16:44:00,
2013-04-22 12:47:00,54.0,54.0,30.59,East,90,5.0,9.0,0,0.00,,,0.00,meteohub,2013-04-22 16:47:00,
2013-04-22 12:48:00,54.0,54.0,30.59,South,180,8.0,9.0,0,0.00,,,0.00,meteohub,2013-04-22 16:48:00,
2013-04-22 12:49:00,53.8,53.8,30.59,East,90,7.0,9.0,0,0.00,,,0.00,meteohub,2013-04-22 16:49:00,
2013-04-22 12:52:00,53.6,53.6,30.60,South,180,6.0,8.0,0,0.00,,,0.00,meteohub,2013-04-22 16:52:00,
2013-04-22 12:55:00,53.8,53.8,30.59,East,90,7.0,8.0,0,0.00,,,0.00,meteohub,2013-04-22 16:55:00,
2013-04-22 12:57:00,53.4,53.4,30.60,SE,135,4.0,8.0,0,0.00,,,0.00,meteohub,2013-04-22 16:57:00,
2013-04-22 13:00:00,53.2,53.2,30.59,SE,135,8.0,10.0,0,0.00,,,0.00,meteohub,2013-04-22 17:00:00,
2013-04-22 13:01:00,53.2,53.2,30.59,SE,135,8.0,10.0,0,0.00,,,0.00,meteohub,2013-04-22 17:01:00,
2013-04-22 13:02:00,53.2,53.2,30.59,East,90,6.0,10.0,0,0.00,,,0.00,meteohub,2013-04-22 17:02:00,
2013-04-22 13:03:00,53.2,53.2,30.59,East,90,6.0,10.0,0,0.00,,,0.00,meteohub,2013-04-22 17:03:00,
2013-04-22 13:06:00,53.4,53.4,30.59,South,180,6.0,10.0,0,0.00,,,0.00,meteohub,2013-04-22 17:06:00,
2013-04-22 13:07:00,53.6,53.6,30.59,East,90,7.0,10.0,0,0.00,,,0.00,meteohub,2013-04-22 17:07:00,
2013-04-22 13:08:00,54.0,54.0,30.59,SE,135,7.0,10.0,0,0.00,,,0.00,meteohub,2013-04-22 17:08:00,
2013-04-22 13:11:00,54.1,54.1,30.58,SE,135,6.0,10.0,0,0.00,,,0.00,meteohub,2013-04-22 17:11:00,
2013-04-22 13:13:00,54.0,54.0,30.58,North,0,8.0,10.0,0,0.00,,,0.00,meteohub,2013-04-22 17:13:00,
2013-04-22 13:14:00,53.8,53.8,30.59,SE,135,8.0,10.0,0,0.00,,,0.00,meteohub,2013-04-22 17:14:00,
2013-04-22 13:17:00,53.4,53.4,30.58,East,90,9.0,9.0,0,0.00,,,0.00,meteohub,2013-04-22 17:17:00,
2013-04-22 13:18:00,53.4,53.4,30.58,East,90,5.0,8.0,0,0.00,,,0.00,meteohub,2013-04-22 17:18:00,
2013-04-22 13:19:00,53.6,53.6,30.58,East,90,5.0,8.0,0,0.00,,,0.00,meteohub,2013-04-22 17:19:00,
2013-04-22 13:20:00,54.0,54.0,30.58,East,90,6.0,8.0,0,0.00,,,0.00,meteohub,2013-04-22 17:20:00,
2013-04-22 13:22:00,54.3,54.3,30.58,SE,135,7.0,9.0,0,0.00,,,0.00,meteohub,2013-04-22 17:22:00,
2013-04-22 13:23:00,54.3,54.3,30.58,SE,135,5.0,9.0,0,0.00,,,0.00,meteohub,2013-04-22 17:23:00,
2013-04-22 13:24:00,54.5,54.5,30.58,SE,135,5.0,9.0,0,0.00,,,0.00,meteohub,2013-04-22 17:24:00,
2013-04-22 13:26:00,54.9,54.9,30.58,SE,135,4.0,11.0,0,0.00,,,0.00,meteohub,2013-04-22 17:26:00,
2013-04-22 13:27:00,55.4,55.4,30.58,NE,45,7.0,11.0,0,0.00,,,0.00,meteohub,2013-04-22 17:27:00,
2013-04-22 13:28:00,55.4,55.4,30.58,SE,135,11.0,11.0,0,0.00,,,0.00,meteohub,2013-04-22 17:28:00,
2013-04-22 13:29:00,55.4,55.4,30.58,South,180,6.0,11.0,0,0.00,,,0.00,meteohub,2013-04-22 17:29:00,
2013-04-22 13:33:00,55.4,55.4,30.58,SE,135,8.0,11.0,0,0.00,,,0.00,meteohub,2013-04-22 17:33:00,
2013-04-22 13:34:00,55.4,55.4,30.58,SE,135,8.0,11.0,0,0.00,,,0.00,meteohub,2013-04-22 17:34:00,
2013-04-22 13:35:00,54.5,54.5,30.58,SE,135,8.0,11.0,0,0.00,,,0.00,meteohub,2013-04-22 17:35:00,
2013-04-22 13:39:00,54.7,54.7,30.58,SE,135,7.0,11.0,0,0.00,,,0.00,meteohub,2013-04-22 17:39:00,
2013-04-22 13:40:00,54.7,54.7,30.58,SE,135,7.0,11.0,0,0.00,,,0.00,meteohub,2013-04-22 17:40:00,
2013-04-22 13:41:00,54.9,54.9,30.58,East,90,6.0,11.0,0,0.00,,,0.00,meteohub,2013-04-22 17:41:00,
2013-04-22 13:45:00,55.6,55.6,30.58,SE,135,5.0,11.0,0,0.00,,,0.00,meteohub,2013-04-22 17:45:00,
2013-04-22 13:46:00,55.6,55.6,30.58,East,90,4.0,8.0,0,0.00,,,0.00,meteohub,2013-04-22 17:46:00,
2013-04-22 13:47:00,55.6,55.6,30.58,East,90,6.0,8.0,0,0.00,,,0.00,meteohub,2013-04-22 17:47:00,
2013-04-22 13:50:00,55.4,55.4,30.58,SE,135,7.0,8.0,0,0.00,,,0.00,meteohub,2013-04-22 17:50:00,
2013-04-22 13:51:00,55.4,55.4,30.58,SE,135,7.0,8.0,0,0.00,,,0.00,meteohub,2013-04-22 17:51:00,
2013-04-22 13:52:00,55.4,55.4,30.57,SE,135,6.0,8.0,0,0.00,,,0.00,meteohub,2013-04-22 17:52:00,
2013-04-22 13:53:00,55.4,55.4,30.57,South,180,7.0,8.0,0,0.00,,,0.00,meteohub,2013-04-22 17:53:00,
2013-04-22 13:56:00,55.0,55.0,30.58,East,90,8.0,8.0,0,0.00,,,0.00,meteohub,2013-04-22 17:56:00,
2013-04-22 13:57:00,55.0,55.0,30.57,SE,135,6.0,8.0,0,0.00,,,0.00,meteohub,2013-04-22 17:57:00,
2013-04-22 13:58:00,55.2,55.2,30.58,SE,135,2.0,8.0,0,0.00,,,0.00,meteohub,2013-04-22 17:58:00,
2013-04-22 14:01:00,55.8,55.8,30.58,SE,135,5.0,10.0,0,0.00,,,0.00,meteohub,2013-04-22 18:01:00,
2013-04-22 14:02:00,55.8,55.8,30.57,SE,135,4.0,10.0,0,0.00,,,0.00,meteohub,2013-04-22 18:02:00,
2013-04-22 14:03:00,55.8,55.8,30.57,SE,135,4.0,10.0,0,0.00,,,0.00,meteohub,2013-04-22 18:03:00,
2013-04-22 14:04:00,55.8,55.8,30.57,SE,135,4.0,10.0,0,0.00,,,0.00,meteohub,2013-04-22 18:04:00,
2013-04-22 14:07:00,55.8,55.8,30.57,SE,135,4.0,10.0,0,0.00,,,0.00,meteohub,2013-04-22 18:07:00,
2013-04-22 14:08:00,55.4,55.4,30.57,NE,45,7.0,10.0,0,0.00,,,0.00,meteohub,2013-04-22 18:08:00,
2013-04-22 14:09:00,55.2,55.2,30.57,SE,135,8.0,10.0,0,0.00,,,0.00,meteohub,2013-04-22 18:09:00,
2013-04-22 14:13:00,55.2,55.2,30.57,East,90,7.0,10.0,0,0.00,,,0.00,meteohub,2013-04-22 18:13:00,
2013-04-22 14:14:00,55.2,55.2,30.57,East,90,10.0,10.0,0,0.00,,,0.00,meteohub,2013-04-22 18:14:00,
2013-04-22 14:15:00,55.2,55.2,30.57,East,90,10.0,10.0,0,0.00,,,0.00,meteohub,2013-04-22 18:15:00,
2013-04-22 14:20:00,55.2,55.2,30.57,East,90,11.0,11.0,0,0.00,,,0.00,meteohub,2013-04-22 18:20:00,
2013-04-22 14:21:00,55.2,55.2,30.56,WSW,248,8.0,10.0,0,0.00,,,0.00,meteohub,2013-04-22 18:21:00,
2013-04-22 14:25:00,55.4,55.4,30.56,SE,135,7.0,10.0,0,0.00,,,0.00,meteohub,2013-04-22 18:25:00,
2013-04-22 14:26:00,55.6,55.6,30.56,SSE,158,7.0,11.0,0,0.00,,,0.00,meteohub,2013-04-22 18:26:00,
2013-04-22 14:28:00,55.6,55.6,30.56,East,90,8.0,11.0,0,0.00,,,0.00,meteohub,2013-04-22 18:28:00,
2013-04-22 14:30:00,55.6,55.6,30.56,East,90,9.0,11.0,0,0.00,,,0.00,meteohub,2013-04-22 18:30:00,
2013-04-22 14:31:00,55.4,55.4,30.56,ESE,113,8.0,11.0,0,0.00,,,0.00,meteohub,2013-04-22 18:31:00,
2013-04-22 14:34:00,55.6,55.6,30.55,East,90,7.0,11.0,0,0.00,,,0.00,meteohub,2013-04-22 18:34:00,
2013-04-22 14:37:00,55.9,55.9,30.56,SE,135,7.0,9.0,0,0.00,,,0.00,meteohub,2013-04-22 18:37:00,
2013-04-22 14:38:00,55.9,55.9,30.56,SE,135,6.0,9.0,0,0.00,,,0.00,meteohub,2013-04-22 18:38:00,
2013-04-22 14:39:00,55.9,55.9,30.56,SE,135,6.0,9.0,0,0.00,,,0.00,meteohub,2013-04-22 18:39:00,
2013-04-22 14:42:00,55.6,55.6,30.55,East,90,10.0,10.0,0,0.00,,,0.00,meteohub,2013-04-22 18:42:00,
2013-04-22 14:43:00,55.4,55.4,30.55,SE,135,7.0,9.0,0,0.00,,,0.00,meteohub,2013-04-22 18:43:00,
2013-04-22 14:45:00,55.2,55.2,30.56,SE,135,10.0,10.0,0,0.00,,,0.00,meteohub,2013-04-22 18:45:00,
2013-04-22 14:47:00,55.0,55.0,30.55,SE,135,11.0,11.0,0,0.00,,,0.00,meteohub,2013-04-22 18:47:00,
2013-04-22 14:49:00,55.0,55.0,30.56,SE,135,7.0,10.0,0,0.00,,,0.00,meteohub,2013-04-22 18:49:00,
2013-04-22 14:50:00,55.2,55.2,30.56,SE,135,6.0,11.0,0,0.00,,,0.00,meteohub,2013-04-22 18:50:00,
2013-04-22 14:52:00,55.6,55.6,30.55,East,90,7.0,11.0,0,0.00,,,0.00,meteohub,2013-04-22 18:52:00,
2013-04-22 14:54:00,55.8,55.8,30.55,SE,135,8.0,11.0,0,0.00,,,0.00,meteohub,2013-04-22 18:54:00,
2013-04-22 14:55:00,55.6,55.6,30.55,South,180,14.0,14.0,0,0.00,,,0.00,meteohub,2013-04-22 18:55:00,
2013-04-22 14:56:00,55.6,55.6,30.55,East,90,8.0,14.0,0,0.00,,,0.00,meteohub,2013-04-22 18:56:00,
2013-04-22 14:57:00,55.8,55.8,30.55,East,90,7.0,14.0,0,0.00,,,0.00,meteohub,2013-04-22 18:57:00,
2013-04-22 14:59:00,56.1,56.1,30.55,East,90,5.0,14.0,0,0.00,,,0.00,meteohub,2013-04-22 18:59:00,
2013-04-22 15:00:00,56.7,56.7,30.55,East,90,7.0,14.0,0,0.00,,,0.00,meteohub,2013-04-22 19:00:00,
2013-04-22 15:02:00,56.5,56.5,30.55,East,90,9.0,14.0,0,0.00,,,0.00,meteohub,2013-04-22 19:02:00,
2013-04-22 15:05:00,56.1,56.1,30.55,East,90,6.0,14.0,0,0.00,,,0.00,meteohub,2013-04-22 19:05:00,
2013-04-22 15:07:00,56.3,56.3,30.55,SE,135,8.0,14.0,0,0.00,,,0.00,meteohub,2013-04-22 19:07:00,
2013-04-22 15:08:00,56.5,56.5,30.54,West,270,7.0,14.0,0,0.00,,,0.00,meteohub,2013-04-22 19:08:00,
2013-04-22 15:10:00,56.5,56.5,30.54,SE,135,4.0,10.0,0,0.00,,,0.00,meteohub,2013-04-22 19:10:00,
2013-04-22 15:11:00,56.7,56.7,30.54,East,90,4.0,10.0,0,0.00,,,0.00,meteohub,2013-04-22 19:11:00,
2013-04-22 15:13:00,57.2,57.2,30.54,East,90,6.0,10.0,0,0.00,,,0.00,meteohub,2013-04-22 19:13:00,
2013-04-22 15:15:00,57.6,57.6,30.54,SE,135,6.0,10.0,0,0.00,,,0.00,meteohub,2013-04-22 19:15:00,
2013-04-22 15:16:00,57.6,57.6,30.54,SE,135,6.0,10.0,0,0.00,,,0.00,meteohub,2013-04-22 19:16:00,
2013-04-22 15:17:00,58.1,58.1,30.54,WSW,248,9.0,10.0,0,0.00,,,0.00,meteohub,2013-04-22 19:17:00,
2013-04-22 15:18:00,58.1,58.1,30.54,WSW,248,9.0,10.0,0,0.00,,,0.00,meteohub,2013-04-22 19:18:00,
2013-04-22 15:19:00,58.1,58.1,30.54,WSW,248,9.0,10.0,0,0.00,,,0.00,meteohub,2013-04-22 19:19:00,
2013-04-22 15:20:00,58.1,58.1,30.54,WSW,248,9.0,9.0,0,0.00,,,0.00,meteohub,2013-04-22 19:20:00,
2013-04-22 15:21:00,58.1,58.1,30.53,WSW,248,9.0,9.0,0,0.00,,,0.00,meteohub,2013-04-22 19:21:00,
2013-04-22 15:22:00,57.4,57.4,30.53,East,90,9.0,9.0,0,0.00,,,0.00,meteohub,2013-04-22 19:22:00,
2013-04-22 15:24:00,57.4,57.4,30.54,SE,135,8.0,9.0,0,0.00,,,0.00,meteohub,2013-04-22 19:24:00,
2013-04-22 15:26:00,57.4,57.4,30.53,East,90,7.0,9.0,0,0.00,,,0.00,meteohub,2013-04-22 19:26:00,
2013-04-22 15:27:00,57.4,57.4,30.53,East,90,8.0,9.0,0,0.00,,,0.00,meteohub,2013-04-22 19:27:00,
2013-04-22 15:28:00,57.2,57.2,30.53,NE,45,7.0,9.0,0,0.00,,,0.00,meteohub,2013-04-22 19:28:00,
2013-04-22 15:30:00,56.8,56.8,30.53,East,90,8.0,9.0,0,0.00,,,0.00,meteohub,2013-04-22 19:30:00,
2013-04-22 15:32:00,56.7,56.7,30.53,East,90,10.0,10.0,0,0.00,,,0.00,meteohub,2013-04-22 19:32:00,
2013-04-22 15:33:00,56.7,56.7,30.53,East,90,8.0,9.0,0,0.00,,,0.00,meteohub,2013-04-22 19:33:00,
2013-04-22 15:35:00,57.0,57.0,30.53,SE,135,5.0,9.0,0,0.00,,,0.00,meteohub,2013-04-22 19:35:00,
2013-04-22 15:36:00,57.0,57.0,30.53,SE,135,5.0,11.0,0,0.00,,,0.00,meteohub,2013-04-22 19:36:00,
2013-04-22 15:37:00,57.0,57.0,30.53,SE,135,5.0,11.0,0,0.00,,,0.00,meteohub,2013-04-22 19:37:00,
2013-04-22 15:39:00,57.0,57.0,30.53,SE,135,5.0,11.0,0,0.00,,,0.00,meteohub,2013-04-22 19:39:00,
2013-04-22 15:40:00,57.9,57.9,30.53,South,180,5.0,11.0,0,0.00,,,0.00,meteohub,2013-04-22 19:40:00,
2013-04-22 15:41:00,58.1,58.1,30.53,East,90,5.0,11.0,0,0.00,,,0.00,meteohub,2013-04-22 19:41:00,
2013-04-22 15:42:00,58.1,58.1,30.53,East,90,6.0,11.0,0,0.00,,,0.00,meteohub,2013-04-22 19:42:00,
2013-04-22 15:46:00,57.7,57.7,30.53,East,90,7.0,10.0,0,0.00,,,0.00,meteohub,2013-04-22 19:46:00,
2013-04-22 15:47:00,57.7,57.7,30.53,East,90,7.0,10.0,0,0.00,,,0.00,meteohub,2013-04-22 19:47:00,
2013-04-22 15:50:00,57.9,57.9,30.54,South,180,4.0,10.0,0,0.00,,,0.00,meteohub,2013-04-22 19:50:00,
2013-04-22 15:51:00,58.1,58.1,30.53,ESE,113,6.0,8.0,0,0.00,,,0.00,meteohub,2013-04-22 19:51:00,
2013-04-22 15:53:00,58.3,58.3,30.53,East,90,9.0,9.0,0,0.00,,,0.00,meteohub,2013-04-22 19:53:00,
2013-04-22 15:54:00,58.5,58.5,30.53,East,90,6.0,8.0,0,0.00,,,0.00,meteohub,2013-04-22 19:54:00,
2013-04-22 15:55:00,58.5,58.5,30.53,SE,135,5.0,8.0,0,0.00,,,0.00,meteohub,2013-04-22 19:55:00,
2013-04-22 15:57:00,58.8,58.8,30.53,East,90,3.0,8.0,0,0.00,,,0.00,meteohub,2013-04-22 19:57:00,
2013-04-22 15:59:00,58.8,58.8,30.53,East,90,9.0,9.0,0,0.00,,,0.00,meteohub,2013-04-22 19:59:00,
2013-04-22 16:00:00,58.8,58.8,30.53,South,180,4.0,11.0,0,0.00,,,0.00,meteohub,2013-04-22 20:00:00,
2013-04-22 16:01:00,58.8,58.8,30.53,South,180,4.0,11.0,0,0.00,,,0.00,meteohub,2013-04-22 20:01:00,
2013-04-22 16:02:00,59.5,59.5,30.53,East,90,4.0,11.0,0,0.00,,,0.00,meteohub,2013-04-22 20:02:00,
2013-04-22 16:04:00,59.5,59.5,30.53,SE,135,9.0,11.0,0,0.00,,,0.00,meteohub,2013-04-22 20:04:00,
2013-04-22 16:05:00,59.4,59.4,30.53,South,180,9.0,11.0,0,0.00,,,0.00,meteohub,2013-04-22 20:05:00,
2013-04-22 16:06:00,59.2,59.2,30.53,East,90,6.0,11.0,0,0.00,,,0.00,meteohub,2013-04-22 20:06:00,
2013-04-22 16:07:00,59.2,59.2,30.53,East,90,6.0,11.0,0,0.00,,,0.00,meteohub,2013-04-22 20:07:00,
2013-04-22 16:08:00,58.8,58.8,30.53,East,90,7.0,11.0,0,0.00,,,0.00,meteohub,2013-04-22 20:08:00,
2013-04-22 16:10:00,58.6,58.6,30.53,East,90,7.0,11.0,0,0.00,,,0.00,meteohub,2013-04-22 20:10:00,
2013-04-22 16:11:00,58.6,58.6,30.53,East,90,7.0,11.0,0,0.00,,,0.00,meteohub,2013-04-22 20:11:00,
2013-04-22 16:13:00,58.3,58.3,30.53,East,90,8.0,11.0,0,0.00,,,0.00,meteohub,2013-04-22 20:13:00,
2013-04-22 16:16:00,58.5,58.5,30.52,East,90,4.0,9.0,0,0.00,,,0.00,meteohub,2013-04-22 20:16:00,
2013-04-22 16:17:00,58.8,58.8,30.52,South,180,4.0,9.0,0,0.00,,,0.00,meteohub,2013-04-22 20:17:00,
2013-04-22 16:18:00,59.0,59.0,30.53,South,180,5.0,9.0,0,0.00,,,0.00,meteohub,2013-04-22 20:18:00,
2013-04-22 16:21:00,59.5,59.5,30.52,East,90,6.0,9.0,0,0.00,,,0.00,meteohub,2013-04-22 20:21:00,
2013-04-22 16:22:00,59.5,59.5,30.53,East,90,6.0,9.0,0,0.00,,,0.00,meteohub,2013-04-22 20:22:00,
2013-04-22 16:24:00,59.2,59.2,30.52,East,90,8.0,9.0,0,0.00,,,0.00,meteohub,2013-04-22 20:24:00,
2013-04-22 16:27:00,58.6,58.6,30.52,East,90,6.0,8.0,0,0.00,,,0.00,meteohub,2013-04-22 20:27:00,
2013-04-22 16:28:00,58.5,58.5,30.51,East,90,7.0,8.0,0,0.00,,,0.00,meteohub,2013-04-22 20:28:00,
2013-04-22 16:30:00,58.5,58.5,30.52,East,90,7.0,8.0,0,0.00,,,0.00,meteohub,2013-04-22 20:30:00,
2013-04-22 16:32:00,58.8,58.8,30.52,East,90,5.0,8.0,0,0.00,,,0.00,meteohub,2013-04-22 20:32:00,
2013-04-22 16:33:00,59.0,59.0,30.52,SE,135,8.0,8.0,0,0.00,,,0.00,meteohub,2013-04-22 20:33:00,
2013-04-22 16:34:00,59.0,59.0,30.52,South,180,8.0,8.0,0,0.00,,,0.00,meteohub,2013-04-22 20:34:00,
2013-04-22 16:35:00,59.0,59.0,30.52,SE,135,8.0,8.0,0,0.00,,,0.00,meteohub,2013-04-22 20:35:00,
2013-04-22 16:39:00,58.8,58.8,30.52,SE,135,6.0,8.0,0,0.00,,,0.00,meteohub,2013-04-22 20:39:00,
2013-04-22 16:40:00,59.0,59.0,30.51,East,90,4.0,8.0,0,0.00,,,0.00,meteohub,2013-04-22 20:40:00,
2013-04-22 16:44:00,59.7,59.7,30.51,East,90,5.0,8.0,0,0.00,,,0.00,meteohub,2013-04-22 20:44:00,
2013-04-22 16:45:00,59.7,59.7,30.52,East,90,8.0,8.0,0,0.00,,,0.00,meteohub,2013-04-22 20:45:00,
2013-04-22 16:46:00,59.7,59.7,30.52,East,90,8.0,8.0,0,0.00,,,0.00,meteohub,2013-04-22 20:46:00,
2013-04-22 16:47:00,59.7,59.7,30.52,East,90,5.0,8.0,0,0.00,,,0.00,meteohub,2013-04-22 20:47:00,
2013-04-22 16:50:00,59.2,59.2,30.52,East,90,7.0,8.0,0,0.00,,,0.00,meteohub,2013-04-22 20:50:00,
2013-04-22 16:51:00,59.0,59.0,30.52,East,90,5.0,8.0,0,0.00,,,0.00,meteohub,2013-04-22 20:51:00,
2013-04-22 16:52:00,59.0,59.0,30.52,East,90,6.0,8.0,0,0.00,,,0.00,meteohub,2013-04-22 20:52:00,
2013-04-22 16:53:00,59.0,59.0,30.52,East,90,7.0,8.0,0,0.00,,,0.00,meteohub,2013-04-22 20:53:00,
2013-04-22 16:56:00,59.2,59.2,30.51,East,90,6.0,8.0,0,0.00,,,0.00,meteohub,2013-04-22 20:56:00,
2013-04-22 16:57:00,59.2,59.2,30.51,East,90,5.0,8.0,0,0.00,,,0.00,meteohub,2013-04-22 20:57:00,
2013-04-22 16:58:00,59.2,59.2,30.51,SE,135,4.0,8.0,0,0.00,,,0.00,meteohub,2013-04-22 20:58:00,
2013-04-22 17:01:00,59.2,59.2,30.51,South,180,8.0,8.0,0,0.00,,,0.00,meteohub,2013-04-22 21:01:00,
2013-04-22 17:02:00,59.2,59.2,30.51,SE,135,9.0,9.0,0,0.00,,,0.00,meteohub,2013-04-22 21:02:00,
2013-04-22 17:03:00,59.0,59.0,30.52,South,180,5.0,8.0,0,0.00,,,0.00,meteohub,2013-04-22 21:03:00,
2013-04-22 17:04:00,58.8,58.8,30.51,East,90,10.0,10.0,0,0.00,,,0.00,meteohub,2013-04-22 21:04:00,
2013-04-22 17:06:00,58.3,58.3,30.52,East,90,10.0,10.0,0,0.00,,,0.00,meteohub,2013-04-22 21:06:00,
2013-04-22 17:08:00,58.3,58.3,30.51,East,90,6.0,9.0,0,0.00,,,0.00,meteohub,2013-04-22 21:08:00,
2013-04-22 17:09:00,58.3,58.3,30.51,South,180,8.0,9.0,0,0.00,,,0.00,meteohub,2013-04-22 21:09:00,
2013-04-22 17:13:00,57.9,57.9,30.51,East,90,8.0,10.0,0,0.00,,,0.00,meteohub,2013-04-22 21:13:00,
2013-04-22 17:14:00,57.9,57.9,30.51,NE,45,10.0,10.0,0,0.00,,,0.00,meteohub,2013-04-22 21:14:00,
2013-04-22 17:16:00,57.7,57.7,30.51,East,90,6.0,12.0,0,0.00,,,0.00,meteohub,2013-04-22 21:16:00,
2013-04-22 17:18:00,57.9,57.9,30.51,East,90,8.0,12.0,0,0.00,,,0.00,meteohub,2013-04-22 21:18:00,
2013-04-22 17:19:00,57.9,57.9,30.51,SE,135,7.0,12.0,0,0.00,,,0.00,meteohub,2013-04-22 21:19:00,
2013-04-22 17:20:00,58.3,58.3,30.51,WSW,248,5.0,12.0,0,0.00,,,0.00,meteohub,2013-04-22 21:20:00,
2013-04-22 17:21:00,58.3,58.3,30.51,East,90,5.0,12.0,0,0.00,,,0.00,meteohub,2013-04-22 21:21:00,
2013-04-22 17:24:00,58.5,58.5,30.51,SE,135,5.0,12.0,0,0.00,,,0.00,meteohub,2013-04-22 21:24:00,
2013-04-22 17:25:00,58.3,58.3,30.51,East,90,9.0,12.0,0,0.00,,,0.00,meteohub,2013-04-22 21:25:00,
2013-04-22 17:27:00,58.6,58.6,30.51,East,90,4.0,12.0,0,0.00,,,0.00,meteohub,2013-04-22 21:27:00,
2013-04-22 17:29:00,59.2,59.2,30.51,South,180,4.0,12.0,0,0.00,,,0.00,meteohub,2013-04-22 21:29:00,
2013-04-22 17:30:00,59.4,59.4,30.51,SE,135,5.0,12.0,0,0.00,,,0.00,meteohub,2013-04-22 21:30:00,
2013-04-22 17:31:00,59.4,59.4,30.50,SE,135,6.0,9.0,0,0.00,,,0.00,meteohub,2013-04-22 21:31:00,
2013-04-22 17:33:00,59.2,59.2,30.51,South,180,8.0,9.0,0,0.00,,,0.00,meteohub,2013-04-22 21:33:00,
2013-04-22 17:34:00,58.8,58.8,30.50,East,90,5.0,9.0,0,0.00,,,0.00,meteohub,2013-04-22 21:34:00,
2013-04-22 17:36:00,58.8,58.8,30.51,SE,135,4.0,9.0,0,0.00,,,0.00,meteohub,2013-04-22 21:36:00,
2013-04-22 17:37:00,58.8,58.8,30.51,SE,135,4.0,9.0,0,0.00,,,0.00,meteohub,2013-04-22 21:37:00,
2013-04-22 17:38:00,59.2,59.2,30.50,SE,135,4.0,9.0,0,0.00,,,0.00,meteohub,2013-04-22 21:38:00,
2013-04-22 17:40:00,59.4,59.4,30.50,SE,135,7.0,9.0,0,0.00,,,0.00,meteohub,2013-04-22 21:40:00,
2013-04-22 17:41:00,59.2,59.2,30.50,SE,135,4.0,9.0,0,0.00,,,0.00,meteohub,2013-04-22 21:41:00,
2013-04-22 17:42:00,59.2,59.2,30.50,SE,135,4.0,9.0,0,0.00,,,0.00,meteohub,2013-04-22 21:42:00,
2013-04-22 17:43:00,59.0,59.0,30.50,East,90,4.0,9.0,0,0.00,,,0.00,meteohub,2013-04-22 21:43:00,
2013-04-22 17:44:00,59.0,59.0,30.50,SE,135,6.0,9.0,0,0.00,,,0.00,meteohub,2013-04-22 21:44:00,
2013-04-22 17:46:00,59.2,59.2,30.50,East,90,4.0,8.0,0,0.00,,,0.00,meteohub,2013-04-22 21:46:00,
2013-04-22 17:47:00,58.6,58.6,30.50,SE,135,9.0,9.0,0,0.00,,,0.00,meteohub,2013-04-22 21:47:00,
2013-04-22 17:48:00,58.6,58.6,30.50,SE,135,9.0,9.0,0,0.00,,,0.00,meteohub,2013-04-22 21:48:00,
2013-04-22 17:49:00,58.5,58.5,30.50,East,90,7.0,8.0,0,0.00,,,0.00,meteohub,2013-04-22 21:49:00,
2013-04-22 17:53:00,57.7,57.7,30.50,SE,135,7.0,11.0,0,0.00,,,0.00,meteohub,2013-04-22 21:53:00,
2013-04-22 17:54:00,57.9,57.9,30.50,East,90,6.0,11.0,0,0.00,,,0.00,meteohub,2013-04-22 21:54:00,
2013-04-22 17:56:00,58.1,58.1,30.50,East,90,7.0,11.0,0,0.00,,,0.00,meteohub,2013-04-22 21:56:00,
2013-04-22 17:58:00,58.3,58.3,30.50,NW,315,7.0,11.0,0,0.00,,,0.00,meteohub,2013-04-22 21:58:00,
2013-04-22 17:59:00,58.3,58.3,30.50,SSE,158,7.0,11.0,0,0.00,,,0.00,meteohub,2013-04-22 21:59:00,
2013-04-22 18:00:00,58.5,58.5,30.50,SE,135,5.0,11.0,0,0.00,,,0.00,meteohub,2013-04-22 22:00:00,
2013-04-22 18:02:00,58.5,58.5,30.50,SE,135,6.0,11.0,0,0.00,,,0.00,meteohub,2013-04-22 22:02:00,
2013-04-22 18:04:00,58.3,58.3,30.50,SE,135,5.0,11.0,0,0.00,,,0.00,meteohub,2013-04-22 22:04:00,
2013-04-22 18:05:00,58.3,58.3,30.50,South,180,5.0,8.0,0,0.00,,,0.00,meteohub,2013-04-22 22:05:00,
2013-04-22 18:06:00,58.3,58.3,30.50,SE,135,4.0,8.0,0,0.00,,,0.00,meteohub,2013-04-22 22:06:00,
2013-04-22 18:08:00,58.5,58.5,30.50,East,90,4.0,8.0,0,0.00,,,0.00,meteohub,2013-04-22 22:08:00,
2013-04-22 18:10:00,59.0,59.0,30.50,South,180,4.0,8.0,0,0.00,,,0.00,meteohub,2013-04-22 22:10:00,
2013-04-22 18:11:00,59.2,59.2,30.50,SE,135,4.0,8.0,0,0.00,,,0.00,meteohub,2013-04-22 22:11:00,
2013-04-22 18:12:00,59.2,59.2,30.50,SE,135,4.0,8.0,0,0.00,,,0.00,meteohub,2013-04-22 22:12:00,
2013-04-22 18:14:00,59.2,59.2,30.49,East,90,7.0,8.0,0,0.00,,,0.00,meteohub,2013-04-22 22:14:00,
2013-04-22 18:16:00,58.8,58.8,30.50,East,90,4.0,6.0,0,0.00,,,0.00,meteohub,2013-04-22 22:16:00,
2013-04-22 18:17:00,58.8,58.8,30.49,East,90,4.0,6.0,0,0.00,,,0.00,meteohub,2013-04-22 22:17:00,
2013-04-22 18:18:00,58.5,58.5,30.49,SE,135,6.0,6.0,0,0.00,,,0.00,meteohub,2013-04-22 22:18:00,
2013-04-22 18:20:00,58.3,58.3,30.50,SE,135,3.0,7.0,0,0.00,,,0.00,meteohub,2013-04-22 22:20:00,
2013-04-22 18:22:00,58.3,58.3,30.50,South,180,3.0,7.0,0,0.00,,,0.00,meteohub,2013-04-22 22:22:00,
2013-04-22 18:23:00,58.6,58.6,30.50,East,90,3.0,7.0,0,0.00,,,0.00,meteohub,2013-04-22 22:23:00,
2013-04-22 18:25:00,58.6,58.6,30.50,South,180,4.0,7.0,0,0.00,,,0.00,meteohub,2013-04-22 22:25:00,
2013-04-22 18:28:00,58.3,58.3,30.50,East,90,7.0,7.0,0,0.00,,,0.00,meteohub,2013-04-22 22:28:00,
2013-04-22 18:31:00,58.1,58.1,30.50,East,90,4.0,7.0,0,0.00,,,0.00,meteohub,2013-04-22 22:31:00,
2013-04-22 18:33:00,57.7,57.7,30.50,SE,135,7.0,7.0,0,0.00,,,0.00,meteohub,2013-04-22 22:33:00,
2013-04-22 18:36:00,57.6,57.6,30.50,East,90,5.0,7.0,0,0.00,,,0.00,meteohub,2013-04-22 22:36:00,
2013-04-22 18:39:00,57.0,57.0,30.50,East,90,5.0,7.0,0,0.00,,,0.00,meteohub,2013-04-22 22:39:00,
2013-04-22 18:40:00,56.5,56.5,30.50,SE,135,4.0,7.0,0,0.00,,,0.00,meteohub,2013-04-22 22:40:00,
2013-04-22 18:41:00,56.5,56.5,30.50,SE,135,4.0,7.0,0,0.00,,,0.00,meteohub,2013-04-22 22:41:00,
2013-04-22 18:42:00,56.3,56.3,30.50,SE,135,4.0,7.0,0,0.00,,,0.00,meteohub,2013-04-22 22:42:00,
2013-04-22 18:44:00,56.1,56.1,30.50,East,90,4.0,7.0,0,0.00,,,0.00,meteohub,2013-04-22 22:44:00,
2013-04-22 18:47:00,55.6,55.6,30.50,East,90,4.0,7.0,0,0.00,,,0.00,meteohub,2013-04-22 22:47:00,
2013-04-22 18:48:00,55.4,55.4,30.50,SE,135,6.0,7.0,0,0.00,,,0.00,meteohub,2013-04-22 22:48:00,
2013-04-22 18:49:00,55.2,55.2,30.50,SE,135,7.0,7.0,0,0.00,,,0.00,meteohub,2013-04-22 22:49:00,
2013-04-22 18:50:00,54.9,54.9,30.50,SE,135,8.0,8.0,0,0.00,,,0.00,meteohub,2013-04-22 22:50:00,
2013-04-22 18:53:00,54.1,54.1,30.50,NE,45,6.0,7.0,0,0.00,,,0.00,meteohub,2013-04-22 22:53:00,
2013-04-22 18:54:00,53.8,53.8,30.50,East,90,8.0,8.0,0,0.00,,,0.00,meteohub,2013-04-22 22:54:00,
2013-04-22 18:56:00,53.4,53.4,30.50,East,90,7.0,8.0,0,0.00,,,0.00,meteohub,2013-04-22 22:56:00,
2013-04-22 18:58:00,53.1,53.1,30.50,East,90,6.0,8.0,0,0.00,,,0.00,meteohub,2013-04-22 22:58:00,
2013-04-22 18:59:00,52.9,52.9,30.50,East,90,5.0,8.0,0,0.00,,,0.00,meteohub,2013-04-22 22:59:00,
2013-04-22 19:00:00,52.9,52.9,30.50,East,90,5.0,8.0,0,0.00,,,0.00,meteohub,2013-04-22 23:00:00,
2013-04-22 19:01:00,52.9,52.9,30.50,South,180,4.0,8.0,0,0.00,,,0.00,meteohub,2013-04-22 23:01:00,
2013-04-22 19:02:00,52.9,52.9,30.50,East,90,3.0,8.0,0,0.00,,,0.00,meteohub,2013-04-22 23:02:00,
2013-04-22 19:03:00,52.9,52.9,30.50,SE,135,5.0,8.0,0,0.00,,,0.00,meteohub,2013-04-22 23:03:00,
2013-04-22 19:05:00,52.7,52.7,30.50,East,90,5.0,8.0,0,0.00,,,0.00,meteohub,2013-04-22 23:05:00,
2013-04-22 19:07:00,52.7,52.7,30.50,SE,135,4.0,8.0,0,0.00,,,0.00,meteohub,2013-04-22 23:07:00,
2013-04-22 19:08:00,52.5,52.5,30.50,SE,135,6.0,8.0,0,0.00,,,0.00,meteohub,2013-04-22 23:08:00,
2013-04-22 19:09:00,52.5,52.5,30.50,East,90,5.0,8.0,0,0.00,,,0.00,meteohub,2013-04-22 23:09:00,
2013-04-22 19:11:00,52.5,52.5,30.50,East,90,4.0,7.0,0,0.00,,,0.00,meteohub,2013-04-22 23:11:00,
2013-04-22 19:12:00,52.3,52.3,30.49,East,90,6.0,7.0,0,0.00,,,0.00,meteohub,2013-04-22 23:12:00,
2013-04-22 19:13:00,52.3,52.3,30.49,East,90,6.0,7.0,0,0.00,,,0.00,meteohub,2013-04-22 23:13:00,
2013-04-22 19:15:00,52.0,52.0,30.50,East,90,4.0,7.0,0,0.00,,,0.00,meteohub,2013-04-22 23:15:00,
2013-04-22 19:16:00,52.0,52.0,30.50,SE,135,5.0,7.0,0,0.00,,,0.00,meteohub,2013-04-22 23:16:00,
2013-04-22 19:17:00,52.0,52.0,30.50,East,90,4.0,7.0,0,0.00,,,0.00,meteohub,2013-04-22 23:17:00,
2013-04-22 19:18:00,51.8,51.8,30.50,East,90,4.0,7.0,0,0.00,,,0.00,meteohub,2013-04-22 23:18:00,
2013-04-22 19:20:00,51.8,51.8,30.50,East,90,4.0,6.0,0,0.00,,,0.00,meteohub,2013-04-22 23:20:00,
2013-04-22 19:22:00,51.6,51.6,30.50,South,180,5.0,6.0,0,0.00,,,0.00,meteohub,2013-04-22 23:22:00,
2013-04-22 19:23:00,51.6,51.6,30.50,East,90,6.0,6.0,0,0.00,,,0.00,meteohub,2013-04-22 23:23:00,
2013-04-22 19:24:00,51.4,51.4,30.50,East,90,4.0,6.0,0,0.00,,,0.00,meteohub,2013-04-22 23:24:00,
2013-04-22 19:26:00,51.4,51.4,30.51,East,90,5.0,6.0,0,0.00,,,0.00,meteohub,2013-04-22 23:26:00,
2013-04-22 19:28:00,51.3,51.3,30.50,East,90,4.0,6.0,0,0.00,,,0.00,meteohub,2013-04-22 23:28:00,
2013-04-22 19:30:00,51.3,51.3,30.50,East,90,4.0,6.0,0,0.00,,,0.00,meteohub,2013-04-22 23:30:00,
2013-04-22 19:31:00,51.1,51.1,30.50,SE,135,4.0,8.0,0,0.00,,,0.00,meteohub,2013-04-22 23:31:00,
2013-04-22 19:32:00,51.1,51.1,30.50,SE,135,4.0,8.0,0,0.00,,,0.00,meteohub,2013-04-22 23:32:00,
2013-04-22 19:33:00,51.1,51.1,30.50,East,90,5.0,8.0,0,0.00,,,0.00,meteohub,2013-04-22 23:33:00,
2013-04-22 19:34:00,50.9,50.9,30.50,SE,135,3.0,8.0,0,0.00,,,0.00,meteohub,2013-04-22 23:34:00,
2013-04-22 19:35:00,50.9,50.9,30.50,SE,135,3.0,8.0,0,0.00,,,0.00,meteohub,2013-04-22 23:35:00,
2013-04-22 19:37:00,50.9,50.9,30.51,SE,135,4.0,8.0,0,0.00,,,0.00,meteohub,2013-04-22 23:37:00,
2013-04-22 19:38:00,50.7,50.7,30.50,East,90,6.0,8.0,0,0.00,,,0.00,meteohub,2013-04-22 23:38:00,
2013-04-22 19:40:00,50.7,50.7,30.50,SE,135,5.0,6.0,0,0.00,,,0.00,meteohub,2013-04-22 23:40:00,
2013-04-22 19:42:00,50.7,50.7,30.50,East,90,5.0,6.0,0,0.00,,,0.00,meteohub,2013-04-22 23:42:00,
2013-04-22 19:43:00,50.5,50.5,30.50,SE,135,4.0,6.0,0,0.00,,,0.00,meteohub,2013-04-22 23:43:00,
2013-04-22 19:47:00,50.5,50.5,30.50,East,90,4.0,7.0,0,0.00,,,0.00,meteohub,2013-04-22 23:47:00,
2013-04-22 19:48:00,50.5,50.5,30.50,SE,135,3.0,7.0,0,0.00,,,0.00,meteohub,2013-04-22 23:48:00,
2013-04-22 19:49:00,50.4,50.4,30.50,East,90,4.0,7.0,0,0.00,,,0.00,meteohub,2013-04-22 23:49:00,
2013-04-22 19:50:00,50.4,50.4,30.50,East,90,4.0,7.0,0,0.00,,,0.00,meteohub,2013-04-22 23:50:00,
2013-04-22 19:52:00,50.4,50.4,30.50,East,90,3.0,7.0,0,0.00,,,0.00,meteohub,2013-04-22 23:52:00,
2013-04-22 19:54:00,50.0,50.0,30.50,East,90,5.0,7.0,0,0.00,,,0.00,meteohub,2013-04-22 23:54:00,
2013-04-22 19:55:00,50.0,50.0,30.50,SE,135,7.0,7.0,0,0.00,,,0.00,meteohub,2013-04-22 23:55:00,
2013-04-22 19:57:00,50.0,50.0,30.51,SE,135,5.0,5.0,0,0.00,,,0.00,meteohub,2013-04-22 23:57:00,
2013-04-22 20:00:00,49.8,49.8,30.50,SE,135,4.0,5.0,0,0.00,,,0.00,meteohub,2013-04-23 00:00:00,
2013-04-22 20:01:00,49.6,49.6,30.50,East,90,4.0,7.0,0,0.00,,,0.00,meteohub,2013-04-23 00:01:00,
2013-04-22 20:02:00,49.6,49.6,30.51,SE,135,4.0,7.0,0,0.00,,,0.00,meteohub,2013-04-23 00:02:00,
2013-04-22 20:04:00,49.5,49.5,30.51,SE,135,5.0,7.0,0,0.00,,,0.00,meteohub,2013-04-23 00:04:00,
2013-04-22 20:05:00,49.5,49.5,30.51,SE,135,4.0,7.0,0,0.00,,,0.00,meteohub,2013-04-23 00:05:00,
2013-04-22 20:07:00,49.5,49.5,30.50,East,90,4.0,7.0,0,0.00,,,0.00,meteohub,2013-04-23 00:07:00,
2013-04-22 20:08:00,49.3,49.3,30.51,SE,135,4.0,7.0,0,0.00,,,0.00,meteohub,2013-04-23 00:08:00,
2013-04-22 20:10:00,49.1,49.1,30.51,East,90,5.0,7.0,0,0.00,,,0.00,meteohub,2013-04-23 00:10:00,
2013-04-22 20:12:00,49.1,49.1,30.51,ESE,113,4.0,6.0,0,0.00,,,0.00,meteohub,2013-04-23 00:12:00,
2013-04-22 20:13:00,49.1,49.1,30.51,East,90,4.0,6.0,0,0.00,,,0.00,meteohub,2013-04-23 00:13:00,
2013-04-22 20:14:00,49.1,49.1,30.51,SE,135,4.0,6.0,0,0.00,,,0.00,meteohub,2013-04-23 00:14:00,
2013-04-22 20:15:00,48.9,48.9,30.51,SE,135,3.0,6.0,0,0.00,,,0.00,meteohub,2013-04-23 00:15:00,
2013-04-22 20:17:00,48.7,48.7,30.51,SE,135,4.0,6.0,0,0.00,,,0.00,meteohub,2013-04-23 00:17:00,
2013-04-22 20:18:00,48.7,48.7,30.51,SE,135,4.0,6.0,0,0.00,,,0.00,meteohub,2013-04-23 00:18:00,
2013-04-22 20:19:00,48.7,48.7,30.51,East,90,4.0,6.0,0,0.00,,,0.00,meteohub,2013-04-23 00:19:00,
2013-04-22 20:21:00,48.6,48.6,30.51,SE,135,4.0,5.0,0,0.00,,,0.00,meteohub,2013-04-23 00:21:00,
2013-04-22 20:23:00,48.4,48.4,30.51,SE,135,4.0,5.0,0,0.00,,,0.00,meteohub,2013-04-23 00:23:00,
2013-04-22 20:24:00,48.4,48.4,30.51,SE,135,4.0,5.0,0,0.00,,,0.00,meteohub,2013-04-23 00:24:00,
2013-04-22 20:25:00,48.4,48.4,30.51,NE,45,6.0,6.0,0,0.00,,,0.00,meteohub,2013-04-23 00:25:00,
2013-04-22 20:27:00,48.4,48.4,30.51,South,180,5.0,5.0,0,0.00,,,0.00,meteohub,2013-04-23 00:27:00,
2013-04-22 20:28:00,48.2,48.2,30.51,SE,135,5.0,5.0,0,0.00,,,0.00,meteohub,2013-04-23 00:28:00,
2013-04-22 20:29:00,48.2,48.2,30.51,SE,135,5.0,5.0,0,0.00,,,0.00,meteohub,2013-04-23 00:29:00,
2013-04-22 20:32:00,48.2,48.2,30.51,SE,135,6.0,7.0,0,0.00,,,0.00,meteohub,2013-04-23 00:32:00,
2013-04-22 20:34:00,48.2,48.2,30.51,SE,135,4.0,7.0,0,0.00,,,0.00,meteohub,2013-04-23 00:34:00,
2013-04-22 20:35:00,48.2,48.2,30.51,SE,135,4.0,7.0,0,0.00,,,0.00,meteohub,2013-04-23 00:35:00,
2013-04-22 20:36:00,48.2,48.2,30.51,East,90,4.0,7.0,0,0.00,,,0.00,meteohub,2013-04-23 00:36:00,
2013-04-22 20:37:00,48.2,48.2,30.51,East,90,4.0,7.0,0,0.00,,,0.00,meteohub,2013-04-23 00:37:00,
2013-04-22 20:39:00,48.0,48.0,30.51,SE,135,5.0,7.0,0,0.00,,,0.00,meteohub,2013-04-23 00:39:00,
2013-04-22 20:40:00,48.0,48.0,30.51,SE,135,4.0,7.0,0,0.00,,,0.00,meteohub,2013-04-23 00:40:00,
2013-04-22 20:42:00,47.8,47.8,30.51,SE,135,4.0,7.0,0,0.00,,,0.00,meteohub,2013-04-23 00:42:00,
2013-04-22 20:43:00,47.8,47.8,30.51,SE,135,4.0,7.0,0,0.00,,,0.00,meteohub,2013-04-23 00:43:00,
2013-04-22 20:44:00,47.7,47.7,30.51,SE,135,4.0,7.0,0,0.00,,,0.00,meteohub,2013-04-23 00:44:00,
2013-04-22 20:45:00,47.8,47.8,30.51,SE,135,4.0,6.0,0,0.00,,,0.00,meteohub,2013-04-23 00:45:00,
2013-04-22 20:48:00,47.7,47.7,30.51,East,90,4.0,6.0,0,0.00,,,0.00,meteohub,2013-04-23 00:48:00,
2013-04-22 20:49:00,47.7,47.7,30.51,East,90,4.0,6.0,0,0.00,,,0.00,meteohub,2013-04-23 00:49:00,
2013-04-22 20:50:00,47.5,47.5,30.51,SE,135,4.0,6.0,0,0.00,,,0.00,meteohub,2013-04-23 00:50:00,
2013-04-22 20:54:00,47.3,47.3,30.51,East,90,4.0,5.0,0,0.00,,,0.00,meteohub,2013-04-23 00:54:00,
2013-04-22 20:55:00,47.1,47.1,30.51,SE,135,4.0,5.0,0,0.00,,,0.00,meteohub,2013-04-23 00:55:00,
2013-04-22 20:56:00,47.1,47.1,30.51,SE,135,4.0,5.0,0,0.00,,,0.00,meteohub,2013-04-23 00:56:00,
2013-04-22 20:57:00,47.1,47.1,30.51,SE,135,5.0,5.0,0,0.00,,,0.00,meteohub,2013-04-23 00:57:00,
2013-04-22 21:00:00,47.1,47.1,30.51,East,90,4.0,5.0,0,0.00,,,0.00,meteohub,2013-04-23 01:00:00,
2013-04-22 21:01:00,47.1,47.1,30.51,SE,135,4.0,5.0,0,0.00,,,0.00,meteohub,2013-04-23 01:01:00,
2013-04-22 21:02:00,47.1,47.1,30.51,SE,135,4.0,5.0,0,0.00,,,0.00,meteohub,2013-04-23 01:02:00,
2013-04-22 21:03:00,47.1,47.1,30.51,SE,135,4.0,5.0,0,0.00,,,0.00,meteohub,2013-04-23 01:03:00,
2013-04-22 21:05:00,47.1,47.1,30.51,SE,135,4.0,5.0,0,0.00,,,0.00,meteohub,2013-04-23 01:05:00,
2013-04-22 21:06:00,47.1,47.1,30.51,SE,135,4.0,5.0,0,0.00,,,0.00,meteohub,2013-04-23 01:06:00,
2013-04-22 21:08:00,46.9,46.9,30.51,SE,135,4.0,5.0,0,0.00,,,0.00,meteohub,2013-04-23 01:08:00,
2013-04-22 21:10:00,46.9,46.9,30.51,SE,135,4.0,5.0,0,0.00,,,0.00,meteohub,2013-04-23 01:10:00,
2013-04-22 21:11:00,46.8,46.8,30.51,SE,135,4.0,5.0,0,0.00,,,0.00,meteohub,2013-04-23 01:11:00,
2013-04-22 21:13:00,46.8,46.8,30.51,East,90,4.0,5.0,0,0.00,,,0.00,meteohub,2013-04-23 01:13:00,
2013-04-22 21:14:00,46.8,46.8,30.51,East,90,4.0,5.0,0,0.00,,,0.00,meteohub,2013-04-23 01:14:00,
2013-04-22 21:16:00,46.8,46.8,30.51,SE,135,6.0,6.0,0,0.00,,,0.00,meteohub,2013-04-23 01:16:00,
2013-04-22 21:18:00,46.6,46.6,30.51,East,90,4.0,5.0,0,0.00,,,0.00,meteohub,2013-04-23 01:18:00,
2013-04-22 21:20:00,46.6,46.6,30.51,East,90,5.0,5.0,0,0.00,,,0.00,meteohub,2013-04-23 01:20:00,
2013-04-22 21:21:00,46.6,46.6,30.52,SE,135,4.0,6.0,0,0.00,,,0.00,meteohub,2013-04-23 01:21:00,
2013-04-22 21:25:00,46.6,46.6,30.52,SE,135,4.0,6.0,0,0.00,,,0.00,meteohub,2013-04-23 01:25:00,
2013-04-22 21:26:00,46.6,46.6,30.51,SE,135,4.0,6.0,0,0.00,,,0.00,meteohub,2013-04-23 01:26:00,
2013-04-22 21:27:00,46.6,46.6,30.52,SE,135,4.0,6.0,0,0.00,,,0.00,meteohub,2013-04-23 01:27:00,
2013-04-22 21:28:00,46.6,46.6,30.52,SE,135,4.0,6.0,0,0.00,,,0.00,meteohub,2013-04-23 01:28:00,
2013-04-22 21:30:00,46.4,46.4,30.51,ESE,113,4.0,6.0,0,0.00,,,0.00,meteohub,2013-04-23 01:30:00,
2013-04-22 21:31:00,46.2,46.2,30.52,SE,135,5.0,6.0,0,0.00,,,0.00,meteohub,2013-04-23 01:31:00,
2013-04-22 21:32:00,46.2,46.2,30.52,SE,135,5.0,6.0,0,0.00,,,0.00,meteohub,2013-04-23 01:32:00,
2013-04-22 21:34:00,46.2,46.2,30.52,East,90,5.0,6.0,0,0.00,,,0.00,meteohub,2013-04-23 01:34:00,
2013-04-22 21:36:00,46.2,46.2,30.52,East,90,6.0,6.0,0,0.00,,,0.00,meteohub,2013-04-23 01:36:00,
2013-04-22 21:37:00,46.2,46.2,30.53,SE,135,4.0,5.0,0,0.00,,,0.00,meteohub,2013-04-23 01:37:00,
2013-04-22 21:38:00,46.2,46.2,30.52,SE,135,4.0,5.0,0,0.00,,,0.00,meteohub,2013-04-23 01:38:00,
2013-04-22 21:40:00,46.2,46.2,30.52,East,90,5.0,5.0,0,0.00,,,0.00,meteohub,2013-04-23 01:40:00,
2013-04-22 21:42:00,46.2,46.2,30.52,East,90,5.0,7.0,0,0.00,,,0.00,meteohub,2013-04-23 01:42:00,
2013-04-22 21:43:00,46.0,46.0,30.52,SE,135,4.0,7.0,0,0.00,,,0.00,meteohub,2013-04-23 01:43:00,
2013-04-22 21:46:00,46.0,46.0,30.52,East,90,5.0,7.0,0,0.00,,,0.00,meteohub,2013-04-23 01:46:00,
2013-04-22 21:48:00,46.0,46.0,30.52,East,90,5.0,7.0,0,0.00,,,0.00,meteohub,2013-04-23 01:48:00,
2013-04-22 21:49:00,46.0,46.0,30.52,SE,135,4.0,7.0,0,0.00,,,0.00,meteohub,2013-04-23 01:49:00,
2013-04-22 21:51:00,45.9,45.9,30.52,SE,135,4.0,7.0,0,0.00,,,0.00,meteohub,2013-04-23 01:51:00,
2013-04-22 21:52:00,45.9,45.9,30.52,SE,135,4.0,7.0,0,0.00,,,0.00,meteohub,2013-04-23 01:52:00,
2013-04-22 21:54:00,45.7,45.7,30.51,East,90,6.0,7.0,0,0.00,,,0.00,meteohub,2013-04-23 01:54:00,
2013-04-22 21:57:00,45.9,45.9,30.52,East,90,5.0,7.0,0,0.00,,,0.00,meteohub,2013-04-23 01:57:00,
2013-04-22 21:58:00,45.9,45.9,30.52,SE,135,5.0,7.0,0,0.00,,,0.00,meteohub,2013-04-23 01:58:00,
2013-04-22 22:00:00,45.7,45.7,30.52,ESE,113,4.0,7.0,0,0.00,,,0.00,meteohub,2013-04-23 02:00:00,
2013-04-22 22:01:00,45.7,45.7,30.52,ESE,113,4.0,6.0,0,0.00,,,0.00,meteohub,2013-04-23 02:01:00,
2013-04-22 22:02:00,45.7,45.7,30.52,East,90,5.0,6.0,0,0.00,,,0.00,meteohub,2013-04-23 02:02:00,
2013-04-22 22:03:00,45.7,45.7,30.52,SE,135,6.0,6.0,0,0.00,,,0.00,meteohub,2013-04-23 02:03:00,
2013-04-22 22:05:00,45.7,45.7,30.52,SE,135,6.0,6.0,0,0.00,,,0.00,meteohub,2013-04-23 02:05:00,
2013-04-22 22:06:00,45.7,45.7,30.52,SE,135,6.0,8.0,0,0.00,,,0.00,meteohub,2013-04-23 02:06:00,
2013-04-22 22:07:00,45.7,45.7,30.52,SE,135,6.0,8.0,0,0.00,,,0.00,meteohub,2013-04-23 02:07:00,
2013-04-22 22:08:00,45.7,45.7,30.52,SE,135,4.0,8.0,0,0.00,,,0.00,meteohub,2013-04-23 02:08:00,
2013-04-22 22:09:00,45.5,45.5,30.51,SE,135,5.0,8.0,0,0.00,,,0.00,meteohub,2013-04-23 02:09:00,
2013-04-22 22:10:00,45.5,45.5,30.51,East,90,7.0,8.0,0,0.00,,,0.00,meteohub,2013-04-23 02:10:00,
2013-04-22 22:11:00,45.5,45.5,30.51,East,90,5.0,8.0,0,0.00,,,0.00,meteohub,2013-04-23 02:11:00,
2013-04-22 22:12:00,45.5,45.5,30.52,SE,135,5.0,8.0,0,0.00,,,0.00,meteohub,2013-04-23 02:12:00,
2013-04-22 22:14:00,45.3,45.3,30.51,SE,135,5.0,8.0,0,0.00,,,0.00,meteohub,2013-04-23 02:14:00,
2013-04-22 22:15:00,45.3,45.3,30.51,SE,135,6.0,8.0,0,0.00,,,0.00,meteohub,2013-04-23 02:15:00,
2013-04-22 22:16:00,45.3,45.3,30.51,SE,135,6.0,8.0,0,0.00,,,0.00,meteohub,2013-04-23 02:16:00,
2013-04-22 22:17:00,45.3,45.3,30.52,SE,135,6.0,8.0,0,0.00,,,0.00,meteohub,2013-04-23 02:17:00,
2013-04-22 22:18:00,45.3,45.3,30.51,SE,135,6.0,8.0,0,0.00,,,0.00,meteohub,2013-04-23 02:18:00,
2013-04-22 22:19:00,45.3,45.3,30.51,SE,135,6.0,8.0,0,0.00,,,0.00,meteohub,2013-04-23 02:19:00,
2013-04-22 22:21:00,45.3,45.3,30.51,SE,135,6.0,7.0,0,0.00,,,0.00,meteohub,2013-04-23 02:21:00,
2013-04-22 22:23:00,45.1,45.1,30.51,East,90,5.0,7.0,0,0.00,,,0.00,meteohub,2013-04-23 02:23:00,
2013-04-22 22:24:00,45.1,45.1,30.51,East,90,6.0,7.0,0,0.00,,,0.00,meteohub,2013-04-23 02:24:00,
2013-04-22 22:25:00,45.1,45.1,30.51,East,90,5.0,7.0,0,0.00,,,0.00,meteohub,2013-04-23 02:25:00,
2013-04-22 22:26:00,45.1,45.1,30.51,SE,135,5.0,7.0,0,0.00,,,0.00,meteohub,2013-04-23 02:26:00,
2013-04-22 22:29:00,45.0,45.0,30.51,East,90,5.0,7.0,0,0.00,,,0.00,meteohub,2013-04-23 02:29:00,
2013-04-22 22:30:00,45.0,45.0,30.51,East,90,5.0,7.0,0,0.00,,,0.00,meteohub,2013-04-23 02:30:00,
2013-04-22 22:31:00,44.8,44.8,30.52,East,90,5.0,7.0,0,0.00,,,0.00,meteohub,2013-04-23 02:31:00,
2013-04-22 22:32:00,44.8,44.8,30.52,East,90,5.0,7.0,0,0.00,,,0.00,meteohub,2013-04-23 02:32:00,
2013-04-22 22:35:00,44.8,44.8,30.51,East,90,5.0,7.0,0,0.00,,,0.00,meteohub,2013-04-23 02:35:00,
2013-04-22 22:36:00,44.8,44.8,30.52,East,90,4.0,7.0,0,0.00,,,0.00,meteohub,2013-04-23 02:36:00,
2013-04-22 22:37:00,44.8,44.8,30.51,SE,135,4.0,7.0,0,0.00,,,0.00,meteohub,2013-04-23 02:37:00,
2013-04-22 22:39:00,44.8,44.8,30.52,East,90,6.0,7.0,0,0.00,,,0.00,meteohub,2013-04-23 02:39:00,
2013-04-22 22:42:00,44.8,44.8,30.51,East,90,4.0,6.0,0,0.00,,,0.00,meteohub,2013-04-23 02:42:00,
2013-04-22 22:43:00,44.8,44.8,30.51,SE,135,4.0,6.0,0,0.00,,,0.00,meteohub,2013-04-23 02:43:00,
2013-04-22 22:44:00,44.8,44.8,30.52,East,90,4.0,6.0,0,0.00,,,0.00,meteohub,2013-04-23 02:44:00,
2013-04-22 22:47:00,44.6,44.6,30.51,SE,135,4.0,6.0,0,0.00,,,0.00,meteohub,2013-04-23 02:47:00,
2013-04-22 22:48:00,44.6,44.6,30.51,SE,135,4.0,6.0,0,0.00,,,0.00,meteohub,2013-04-23 02:48:00,
2013-04-22 22:49:00,44.6,44.6,30.51,SE,135,4.0,6.0,0,0.00,,,0.00,meteohub,2013-04-23 02:49:00,
2013-04-22 22:50:00,44.6,44.6,30.51,SE,135,6.0,6.0,0,0.00,,,0.00,meteohub,2013-04-23 02:50:00,
2013-04-22 22:52:00,44.6,44.6,30.51,SE,135,6.0,6.0,0,0.00,,,0.00,meteohub,2013-04-23 02:52:00,
2013-04-22 22:53:00,44.6,44.6,30.51,SE,135,7.0,7.0,0,0.00,,,0.00,meteohub,2013-04-23 02:53:00,
2013-04-22 22:54:00,44.4,44.4,30.51,SE,135,6.0,6.0,0,0.00,,,0.00,meteohub,2013-04-23 02:54:00,
2013-04-22 22:56:00,44.6,44.6,30.51,SE,135,6.0,7.0,0,0.00,,,0.00,meteohub,2013-04-23 02:56:00,
2013-04-22 22:57:00,44.4,44.4,30.51,ESE,113,6.0,7.0,0,0.00,,,0.00,meteohub,2013-04-23 02:57:00,
2013-04-22 22:59:00,44.4,44.4,30.51,SE,135,4.0,7.0,0,0.00,,,0.00,meteohub,2013-04-23 02:59:00,
2013-04-22 23:01:00,44.4,44.4,30.51,SE,135,4.0,7.0,0,0.00,,,0.00,meteohub,2013-04-23 03:01:00,
2013-04-22 23:02:00,44.4,44.4,30.51,SE,135,4.0,7.0,0,0.00,,,0.00,meteohub,2013-04-23 03:02:00,
2013-04-22 23:03:00,44.4,44.4,30.51,SE,135,4.0,7.0,0,0.00,,,0.00,meteohub,2013-04-23 03:03:00,
2013-04-22 23:04:00,44.4,44.4,30.51,SE,135,4.0,7.0,0,0.00,,,0.00,meteohub,2013-04-23 03:04:00,
2013-04-22 23:06:00,44.4,44.4,30.51,SE,135,4.0,7.0,0,0.00,,,0.00,meteohub,2013-04-23 03:06:00,
2013-04-22 23:08:00,44.4,44.4,30.51,SE,135,5.0,7.0,0,0.00,,,0.00,meteohub,2013-04-23 03:08:00,
2013-04-22 23:10:00,44.2,44.2,30.51,SE,135,5.0,7.0,0,0.00,,,0.00,meteohub,2013-04-23 03:10:00,
2013-04-22 23:11:00,44.2,44.2,30.51,ESE,113,8.0,8.0,0,0.00,,,0.00,meteohub,2013-04-23 03:11:00,
2013-04-22 23:13:00,44.2,44.2,30.51,East,90,5.0,7.0,0,0.00,,,0.00,meteohub,2013-04-23 03:13:00,
2013-04-22 23:14:00,44.2,44.2,30.51,North,0,6.0,7.0,0,0.00,,,0.00,meteohub,2013-04-23 03:14:00,
2013-04-22 23:15:00,44.1,44.1,30.51,East,90,8.0,8.0,0,0.00,,,0.00,meteohub,2013-04-23 03:15:00,
2013-04-22 23:16:00,44.2,44.2,30.51,SE,135,5.0,8.0,0,0.00,,,0.00,meteohub,2013-04-23 03:16:00,
2013-04-22 23:18:00,44.2,44.2,30.51,SE,135,4.0,8.0,0,0.00,,,0.00,meteohub,2013-04-23 03:18:00,
2013-04-22 23:20:00,44.1,44.1,30.51,SE,135,7.0,8.0,0,0.00,,,0.00,meteohub,2013-04-23 03:20:00,
2013-04-22 23:21:00,44.1,44.1,30.51,SE,135,7.0,8.0,0,0.00,,,0.00,meteohub,2013-04-23 03:21:00,
2013-04-22 23:22:00,44.1,44.1,30.51,East,90,5.0,8.0,0,0.00,,,0.00,meteohub,2013-04-23 03:22:00,
2013-04-22 23:24:00,44.2,44.2,30.50,SE,135,5.0,8.0,0,0.00,,,0.00,meteohub,2013-04-23 03:24:00,
2013-04-22 23:25:00,44.2,44.2,30.50,SE,135,5.0,8.0,0,0.00,,,0.00,meteohub,2013-04-23 03:25:00,
2013-04-22 23:26:00,44.2,44.2,30.50,NE,45,5.0,8.0,0,0.00,,,0.00,meteohub,2013-04-23 03:26:00,
2013-04-22 23:27:00,44.1,44.1,30.51,South,180,6.0,8.0,0,0.00,,,0.00,meteohub,2013-04-23 03:27:00,
2013-04-22 23:29:00,44.1,44.1,30.51,SE,135,7.0,8.0,0,0.00,,,0.00,meteohub,2013-04-23 03:29:00,
2013-04-22 23:30:00,44.1,44.1,30.51,East,90,4.0,8.0,0,0.00,,,0.00,meteohub,2013-04-23 03:30:00,
2013-04-22 23:31:00,44.1,44.1,30.51,SE,135,4.0,8.0,0,0.00,,,0.00,meteohub,2013-04-23 03:31:00,
2013-04-22 23:32:00,44.1,44.1,30.51,East,90,10.0,10.0,0,0.00,,,0.00,meteohub,2013-04-23 03:32:00,
2013-04-22 23:33:00,44.1,44.1,30.51,East,90,10.0,10.0,0,0.00,,,0.00,meteohub,2013-04-23 03:33:00,
2013-04-22 23:35:00,44.1,44.1,30.50,SE,135,5.0,10.0,0,0.00,,,0.00,meteohub,2013-04-23 03:35:00,
2013-04-22 23:36:00,44.1,44.1,30.50,SE,135,5.0,10.0,0,0.00,,,0.00,meteohub,2013-04-23 03:36:00,
2013-04-22 23:37:00,44.1,44.1,30.51,SE,135,6.0,10.0,0,0.00,,,0.00,meteohub,2013-04-23 03:37:00,
2013-04-22 23:38:00,44.1,44.1,30.51,SE,135,6.0,10.0,0,0.00,,,0.00,meteohub,2013-04-23 03:38:00,
2013-04-22 23:41:00,43.9,43.9,30.51,SE,135,8.0,10.0,0,0.00,,,0.00,meteohub,2013-04-23 03:41:00,
2013-04-22 23:42:00,43.9,43.9,30.50,SE,135,5.0,10.0,0,0.00,,,0.00,meteohub,2013-04-23 03:42:00,
2013-04-22 23:43:00,43.9,43.9,30.50,East,90,8.0,10.0,0,0.00,,,0.00,meteohub,2013-04-23 03:43:00,
2013-04-22 23:44:00,43.9,43.9,30.50,SE,135,6.0,10.0,0,0.00,,,0.00,meteohub,2013-04-23 03:44:00,
2013-04-22 23:46:00,43.9,43.9,30.50,East,90,6.0,10.0,0,0.00,,,0.00,meteohub,2013-04-23 03:46:00,
2013-04-22 23:48:00,43.9,43.9,30.50,SE,135,6.0,10.0,0,0.00,,,0.00,meteohub,2013-04-23 03:48:00,
2013-04-22 23:50:00,43.7,43.7,30.50,SE,135,7.0,10.0,0,0.00,,,0.00,meteohub,2013-04-23 03:50:00,
2013-04-22 23:51:00,43.7,43.7,30.50,East,90,9.0,9.0,0,0.00,,,0.00,meteohub,2013-04-23 03:51:00,
2013-04-22 23:52:00,43.9,43.9,30.51,East,90,9.0,9.0,0,0.00,,,0.00,meteohub,2013-04-23 03:52:00,
2013-04-22 23:53:00,43.9,43.9,30.51,SE,135,6.0,8.0,0,0.00,,,0.00,meteohub,2013-04-23 03:53:00,
2013-04-22 23:55:00,43.9,43.9,30.50,East,90,5.0,9.0,0,0.00,,,0.00,meteohub,2013-04-23 03:55:00,
2013-04-22 23:56:00,43.7,43.7,30.50,East,90,6.0,9.0,0,0.00,,,0.00,meteohub,2013-04-23 03:56:00,
2013-04-22 23:58:00,43.7,43.7,30.50,East,90,6.0,9.0,0,0.00,,,0.00,meteohub,2013-04-23 03:58:00,